Time,TemperatureF,DewpointF,PressureIn,WindDirection,WindDirectionDegrees,WindSpeedMPH,WindSpeedGustMPH,Humidity,HourlyPrecipIn,Conditions,Clouds,dailyrainin,SoftwareType,DateUTC
2013-08-28 07:22:00,71.3,63.3,29.74,WSW,252,1.0,1.0,76,0.00,,,0.00,VWS V14.01,2013-08-28 14:22:00,
2013-08-28 07:23:00,71.2,63.3,29.74,WSW,252,0.0,1.0,76,0.00,,,0.00,VWS V14.01,2013-08-28 14:23:00,
2013-08-28 07:25:00,71.2,63.6,29.74,WSW,252,1.0,1.0,77,0.00,,,0.00,VWS V14.01,2013-08-28 14:25:00,
2013-08-28 07:27:00,71.2,63.3,29.74,WSW,251,1.0,1.0,76,0.00,,,0.00,VWS V14.01,2013-08-28 14:27:00,
2013-08-28 07:28:00,71.2,63.3,29.74,West,276,1.0,1.0,76,0.00,,,0.00,VWS V14.01,2013-08-28 14:28:00,
2013-08-28 07:31:00,71.1,63.2,29.74,WSW,257,1.0,2.0,76,0.00,,,0.00,VWS V14.01,2013-08-28 14:31:00,
2013-08-28 07:32:00,71.1,63.5,29.74,WSW,243,1.0,1.0,77,0.00,,,0.00,VWS V14.01,2013-08-28 14:32:00,
2013-08-28 07:33:00,71.1,63.5,29.75,West,276,1.0,1.0,77,0.00,,,0.00,VWS V14.01,2013-08-28 14:33:00,
2013-08-28 07:34:00,71.2,63.6,29.75,West,276,1.0,1.0,77,0.00,,,0.00,VWS V14.01,2013-08-28 14:34:00,
2013-08-28 07:37:00,71.3,63.3,29.75,WSW,252,0.0,1.0,76,0.00,,,0.00,VWS V14.01,2013-08-28 14:37:00,
2013-08-28 07:39:00,71.4,63.8,29.75,WSW,251,0.0,0.0,77,0.00,,,0.00,VWS V14.01,2013-08-28 14:39:00,
2013-08-28 07:42:00,71.7,63.7,29.75,WSW,252,0.0,1.0,76,0.00,,,0.00,VWS V14.01,2013-08-28 14:42:00,
2013-08-28 07:43:00,71.8,63.8,29.75,WSW,252,0.0,0.0,76,0.00,,,0.00,VWS V14.01,2013-08-28 14:43:00,
2013-08-28 07:45:00,71.9,63.9,29.75,WSW,252,0.0,1.0,76,0.00,,,0.00,VWS V14.01,2013-08-28 14:45:00,
2013-08-28 07:46:00,72.0,64.0,29.75,WSW,252,1.0,1.0,76,0.00,,,0.00,VWS V14.01,2013-08-28 14:46:00,
2013-08-28 07:50:00,72.5,64.1,29.75,WSW,252,0.0,1.0,75,0.00,,,0.00,VWS V14.01,2013-08-28 14:50:00,
2013-08-28 07:51:00,72.6,63.8,29.75,WSW,252,0.0,1.0,74,0.00,,,0.00,VWS V14.01,2013-08-28 14:51:00,
2013-08-28 07:54:00,73.0,64.2,29.75,WSW,251,0.0,0.0,74,0.00,,,0.00,VWS V14.01,2013-08-28 14:54:00,
2013-08-28 07:56:00,73.2,64.0,29.75,WSW,252,0.0,0.0,73,0.00,,,0.00,VWS V14.01,2013-08-28 14:56:00,
2013-08-28 07:57:00,73.3,64.1,29.75,WSW,252,0.0,1.0,73,0.00,,,0.00,VWS V14.01,2013-08-28 14:57:00,
2013-08-28 08:01:00,74.2,65.4,29.75,WSW,252,0.0,1.0,74,0.00,,,0.00,VWS V14.01,2013-08-28 15:01:00,
2013-08-28 08:02:00,74.6,65.4,29.75,WSW,253,0.0,0.0,73,0.00,,,0.00,VWS V14.01,2013-08-28 15:02:00,
2013-08-28 08:04:00,75.5,65.8,29.75,WSW,252,0.0,1.0,72,0.00,,,0.00,VWS V14.01,2013-08-28 15:04:00,
2013-08-28 08:08:00,76.5,65.2,29.75,WSW,252,0.0,0.0,68,0.00,,,0.00,VWS V14.01,2013-08-28 15:08:00,
2013-08-28 08:10:00,76.8,65.0,29.75,WSW,252,0.0,1.0,67,0.00,,,0.00,VWS V14.01,2013-08-28 15:10:00,
2013-08-28 08:14:00,76.9,64.7,29.75,West,262,1.0,2.0,66,0.00,,,0.00,VWS V14.01,2013-08-28 15:14:00,
2013-08-28 08:15:00,76.7,64.5,29.75,West,259,1.0,1.0,66,0.00,,,0.00,VWS V14.01,2013-08-28 15:15:00,
2013-08-28 08:16:00,76.5,64.7,29.75,West,259,0.0,1.0,67,0.00,,,0.00,VWS V14.01,2013-08-28 15:16:00,
2013-08-28 08:17:00,76.3,64.6,29.75,WSW,250,2.0,2.0,67,0.00,,,0.00,VWS V14.01,2013-08-28 15:17:00,
2013-08-28 08:19:00,76.1,64.4,29.75,WSW,246,0.0,1.0,67,0.00,,,0.00,VWS V14.01,2013-08-28 15:19:00,
2013-08-28 08:20:00,76.0,64.7,29.75,WSW,248,1.0,1.0,68,0.00,,,0.00,VWS V14.01,2013-08-28 15:20:00,
2013-08-28 08:21:00,71.2,63.3,29.74,WSW,252,0.0,1.0,76,0.00,,,0.00,VWS V15.00,2013-08-28 15:21:00,
2013-08-28 08:22:00,71.2,63.6,29.74,WSW,252,0.0,0.0,77,0.00,,,0.00,VWS V15.00,2013-08-28 15:22:00,
2013-08-28 08:23:00,71.2,63.6,29.74,WSW,252,1.0,1.0,77,0.00,,,0.00,VWS V15.00,2013-08-28 15:23:00,
2013-08-28 08:24:00,75.8,64.5,29.75,WSW,245,1.0,1.0,68,0.00,,,0.00,VWS V14.01,2013-08-28 15:24:00,
2013-08-28 08:25:00,75.8,64.5,29.75,WSW,249,0.0,1.0,68,0.00,,,0.00,VWS V14.01,2013-08-28 15:25:00,
2013-08-28 08:26:00,75.8,64.5,29.75,WSW,249,0.0,1.0,68,0.00,,,0.00,VWS V14.01,2013-08-28 15:26:00,
2013-08-28 08:27:00,71.2,63.3,29.74,West,262,1.0,2.0,76,0.00,,,0.00,VWS V15.00,2013-08-28 15:27:00,
2013-08-28 08:28:00,75.8,64.5,29.75,West,267,1.0,2.0,68,0.00,,,0.00,VWS V14.01,2013-08-28 15:28:00,
2013-08-28 08:29:00,71.1,63.2,29.74,WSW,257,1.0,2.0,76,0.00,,,0.00,VWS V15.00,2013-08-28 15:29:00,
2013-08-28 08:30:00,71.1,63.5,29.74,WSW,243,1.0,1.0,77,0.00,,,0.00,VWS V15.00,2013-08-28 15:30:00,
2013-08-28 08:31:00,75.7,64.4,29.76,West,260,0.0,1.0,68,0.00,,,0.00,VWS V14.01,2013-08-28 15:31:00,
2013-08-28 08:32:00,71.2,63.6,29.75,West,276,1.0,1.0,77,0.00,,,0.00,VWS V15.00,2013-08-28 15:32:00,
2013-08-28 08:33:00,71.2,63.6,29.75,West,276,1.0,1.0,77,0.00,,,0.00,VWS V15.00,2013-08-28 15:33:00,
2013-08-28 08:34:00,71.2,63.3,29.75,WSW,252,0.0,1.0,76,0.00,,,0.00,VWS V15.00,2013-08-28 15:34:00,
2013-08-28 08:35:00,75.9,64.6,29.76,West,260,0.0,1.0,68,0.00,,,0.00,VWS V14.01,2013-08-28 15:35:00,
2013-08-28 08:36:00,76.1,64.8,29.76,West,260,0.0,0.0,68,0.00,,,0.00,VWS V14.01,2013-08-28 15:36:00,
2013-08-28 08:37:00,76.3,65.0,29.76,WSW,248,3.0,3.0,68,0.00,,,0.00,VWS V14.01,2013-08-28 15:37:00,
2013-08-28 08:38:00,71.5,63.5,29.75,WSW,251,0.0,1.0,76,0.00,,,0.00,VWS V15.00,2013-08-28 15:38:00,
2013-08-28 08:39:00,76.4,65.1,29.75,SW,218,0.0,1.0,68,0.00,,,0.00,VWS V14.01,2013-08-28 15:39:00,
2013-08-28 08:40:00,76.5,64.7,29.75,West,269,3.0,4.0,67,0.00,,,0.00,VWS V14.01,2013-08-28 15:40:00,
2013-08-28 08:41:00,76.6,64.8,29.75,WSW,249,2.0,4.0,67,0.00,,,0.00,VWS V14.01,2013-08-28 15:41:00,
2013-08-28 08:42:00,71.9,63.9,29.75,WSW,252,0.0,0.0,76,0.00,,,0.00,VWS V15.00,2013-08-28 15:42:00,
2013-08-28 08:43:00,71.9,63.9,29.75,WSW,252,0.0,1.0,76,0.00,,,0.00,VWS V15.00,2013-08-28 15:43:00,
2013-08-28 08:44:00,76.6,64.8,29.75,West,263,2.0,2.0,67,0.00,,,0.00,VWS V14.01,2013-08-28 15:44:00,
2013-08-28 08:45:00,72.1,63.8,29.75,WSW,252,1.0,1.0,75,0.00,,,0.00,VWS V15.00,2013-08-28 15:45:00,
2013-08-28 08:46:00,76.7,64.9,29.75,West,264,1.0,1.0,67,0.00,,,0.00,VWS V14.01,2013-08-28 15:46:00,
2013-08-28 08:47:00,76.8,65.0,29.75,West,259,1.0,1.0,67,0.00,,,0.00,VWS V14.01,2013-08-28 15:47:00,
2013-08-28 08:48:00,72.5,64.1,29.75,WSW,252,0.0,1.0,75,0.00,,,0.00,VWS V15.00,2013-08-28 15:48:00,
2013-08-28 08:49:00,72.6,63.8,29.75,WSW,252,0.0,1.0,74,0.00,,,0.00,VWS V15.00,2013-08-28 15:49:00,
2013-08-28 08:50:00,77.1,65.3,29.76,West,261,1.0,1.0,67,0.00,,,0.00,VWS V14.01,2013-08-28 15:50:00,
2013-08-28 08:51:00,77.2,65.0,29.76,WSW,255,1.0,2.0,66,0.00,,,0.00,VWS V14.01,2013-08-28 15:51:00,
2013-08-28 08:52:00,77.2,65.0,29.76,WSW,256,0.0,0.0,66,0.00,,,0.00,VWS V14.01,2013-08-28 15:52:00,
2013-08-28 08:53:00,77.3,65.1,29.76,West,277,1.0,1.0,66,0.00,,,0.00,VWS V14.01,2013-08-28 15:53:00,
2013-08-28 08:54:00,77.4,65.2,29.76,WSW,252,1.0,1.0,66,0.00,,,0.00,VWS V14.01,2013-08-28 15:54:00,
2013-08-28 08:55:00,73.3,64.1,29.75,WSW,252,0.0,1.0,73,0.00,,,0.00,VWS V15.00,2013-08-28 15:55:00,
2013-08-28 08:56:00,73.4,64.2,29.75,WSW,252,0.0,0.0,73,0.00,,,0.00,VWS V15.00,2013-08-28 15:56:00,
2013-08-28 08:57:00,77.8,65.1,29.76,NNW,347,2.0,2.0,65,0.00,,,0.00,VWS V14.01,2013-08-28 15:57:00,
2013-08-28 08:58:00,77.8,65.1,29.76,NNW,345,1.0,2.0,65,0.00,,,0.00,VWS V14.01,2013-08-28 15:58:00,
2013-08-28 08:59:00,78.0,65.3,29.76,West,261,3.0,3.0,65,0.00,,,0.00,VWS V14.01,2013-08-28 15:59:00,
2013-08-28 09:00:00,74.6,65.4,29.75,WSW,252,0.0,1.0,73,0.00,,,0.00,VWS V15.00,2013-08-28 16:00:00,
2013-08-28 09:01:00,75.0,65.8,29.75,WSW,253,0.0,0.0,73,0.00,,,0.00,VWS V15.00,2013-08-28 16:01:00,
2013-08-28 09:02:00,78.1,64.5,29.76,WSW,254,1.0,2.0,63,0.00,,,0.00,VWS V14.01,2013-08-28 16:02:00,
2013-08-28 09:03:00,75.8,65.7,29.75,WSW,252,0.0,1.0,71,0.00,,,0.00,VWS V15.00,2013-08-28 16:03:00,
2013-08-28 09:04:00,78.2,64.6,29.76,NW,316,1.0,1.0,63,0.00,,,0.00,VWS V14.01,2013-08-28 16:04:00,
2013-08-28 09:05:00,76.3,65.4,29.75,WSW,252,0.0,1.0,69,0.00,,,0.00,VWS V15.00,2013-08-28 16:05:00,
2013-08-28 09:06:00,76.5,65.2,29.75,WSW,252,0.0,0.0,68,0.00,,,0.00,VWS V15.00,2013-08-28 16:06:00,
2013-08-28 09:07:00,78.6,63.6,29.76,West,266,2.0,2.0,60,0.00,,,0.00,VWS V14.01,2013-08-28 16:07:00,
2013-08-28 09:08:00,76.8,65.0,29.75,WSW,252,0.0,1.0,67,0.00,,,0.00,VWS V15.00,2013-08-28 16:08:00,
2013-08-28 09:09:00,78.8,63.3,29.76,WSW,249,2.0,3.0,59,0.00,,,0.00,VWS V14.01,2013-08-28 16:09:00,
2013-08-28 09:10:00,77.0,64.8,29.75,WSW,252,0.0,0.0,66,0.00,,,0.00,VWS V15.00,2013-08-28 16:10:00,
2013-08-28 09:11:00,77.1,64.9,29.75,West,259,1.0,2.0,66,0.00,,,0.00,VWS V15.00,2013-08-28 16:11:00,
2013-08-28 09:12:00,78.9,63.8,29.76,WSW,249,0.0,0.0,60,0.00,,,0.00,VWS V14.01,2013-08-28 16:12:00,
2013-08-28 09:13:00,79.1,63.6,29.76,WSW,252,0.0,1.0,59,0.00,,,0.00,VWS V14.01,2013-08-28 16:13:00,
2013-08-28 09:14:00,76.5,64.7,29.75,West,259,0.0,1.0,67,0.00,,,0.00,VWS V15.00,2013-08-28 16:14:00,
2013-08-28 09:15:00,76.4,64.6,29.75,WSW,249,1.0,1.0,67,0.00,,,0.00,VWS V15.00,2013-08-28 16:15:00,
2013-08-28 09:16:00,79.6,64.0,29.76,WNW,297,1.0,2.0,59,0.00,,,0.00,VWS V14.01,2013-08-28 16:16:00,
2013-08-28 09:17:00,79.7,64.1,29.76,West,266,0.0,2.0,59,0.00,,,0.00,VWS V14.01,2013-08-28 16:17:00,
2013-08-28 09:18:00,79.7,63.6,29.76,WSW,253,3.0,4.0,58,0.00,,,0.00,VWS V14.01,2013-08-28 16:18:00,
2013-08-28 09:19:00,79.7,63.6,29.76,WSW,243,0.0,2.0,58,0.00,,,0.00,VWS V14.01,2013-08-28 16:19:00,
2013-08-28 09:20:00,75.9,64.6,29.75,WSW,249,1.0,1.0,68,0.00,,,0.00,VWS V15.00,2013-08-28 16:20:00,
2013-08-28 09:21:00,79.9,63.3,29.76,WSW,255,3.0,4.0,57,0.00,,,0.00,VWS V14.01,2013-08-28 16:21:00,
2013-08-28 09:22:00,75.8,64.5,29.75,WSW,245,1.0,1.0,68,0.00,,,0.00,VWS V15.00,2013-08-28 16:22:00,
2013-08-28 09:23:00,80.0,62.9,29.76,West,277,1.0,1.0,56,0.00,,,0.00,VWS V14.01,2013-08-28 16:23:00,
2013-08-28 09:24:00,80.1,62.5,29.76,West,266,0.0,1.0,55,0.00,,,0.00,VWS V14.01,2013-08-28 16:24:00,
2013-08-28 09:25:00,75.8,64.5,29.75,West,269,1.0,2.0,68,0.00,,,0.00,VWS V15.00,2013-08-28 16:25:00,
2013-08-28 09:26:00,75.8,64.5,29.75,West,267,1.0,2.0,68,0.00,,,0.00,VWS V15.00,2013-08-28 16:26:00,
2013-08-28 09:27:00,75.8,64.5,29.75,West,276,1.0,2.0,68,0.00,,,0.00,VWS V15.00,2013-08-28 16:27:00,
2013-08-28 09:28:00,80.6,63.5,29.76,NW,307,1.0,4.0,56,0.00,,,0.00,VWS V14.01,2013-08-28 16:28:00,
2013-08-28 09:29:00,80.8,63.7,29.76,NW,316,1.0,1.0,56,0.00,,,0.00,VWS V14.01,2013-08-28 16:29:00,
2013-08-28 09:30:00,75.7,64.4,29.76,West,260,0.0,0.0,68,0.00,,,0.00,VWS V15.00,2013-08-28 16:30:00,
2013-08-28 09:31:00,81.0,63.8,29.76,NW,314,0.0,1.0,56,0.00,,,0.00,VWS V14.01,2013-08-28 16:31:00,
2013-08-28 09:32:00,75.9,64.6,29.76,West,260,1.0,1.0,68,0.00,,,0.00,VWS V15.00,2013-08-28 16:32:00,
2013-08-28 09:33:00,81.2,64.0,29.76,WSW,257,3.0,3.0,56,0.00,,,0.00,VWS V14.01,2013-08-28 16:33:00,
2013-08-28 09:34:00,81.4,64.2,29.76,West,281,2.0,3.0,56,0.00,,,0.00,VWS V14.01,2013-08-28 16:34:00,
2013-08-28 09:35:00,76.2,65.3,29.76,West,276,2.0,2.0,69,0.00,,,0.00,VWS V15.00,2013-08-28 16:35:00,
2013-08-28 09:36:00,81.4,64.2,29.76,WSW,257,1.0,1.0,56,0.00,,,0.00,VWS V14.01,2013-08-28 16:36:00,
2013-08-28 09:37:00,81.5,64.3,29.76,West,263,3.0,4.0,56,0.00,,,0.00,VWS V14.01,2013-08-28 16:37:00,
2013-08-28 09:38:00,81.5,63.8,29.76,WSW,248,1.0,3.0,55,0.00,,,0.00,VWS V14.01,2013-08-28 16:38:00,
2013-08-28 09:39:00,76.6,64.8,29.75,WSW,249,2.0,4.0,67,0.00,,,0.00,VWS V15.00,2013-08-28 16:39:00,
2013-08-28 09:40:00,81.6,64.4,29.76,WSW,255,1.0,2.0,56,0.00,,,0.00,VWS V14.01,2013-08-28 16:40:00,
2013-08-28 09:41:00,81.6,63.9,29.76,West,273,1.0,1.0,55,0.00,,,0.00,VWS V14.01,2013-08-28 16:41:00,
2013-08-28 09:42:00,76.6,64.8,29.75,West,263,2.0,2.0,67,0.00,,,0.00,VWS V15.00,2013-08-28 16:42:00,
2013-08-28 09:43:00,76.6,64.8,29.75,West,261,1.0,2.0,67,0.00,,,0.00,VWS V15.00,2013-08-28 16:43:00,
2013-08-28 09:44:00,81.9,63.6,29.76,West,259,0.0,1.0,54,0.00,,,0.00,VWS V14.01,2013-08-28 16:44:00,
2013-08-28 09:45:00,82.5,63.7,29.77,WSW,242,3.0,3.0,53,0.00,,,0.00,VWS V14.01,2013-08-28 16:45:00,
2013-08-28 09:46:00,82.2,63.9,29.76,NW,322,0.0,1.0,54,0.00,,,0.00,VWS V14.01,2013-08-28 16:46:00,
2013-08-28 09:47:00,82.4,64.1,29.76,SW,236,2.0,3.0,54,0.00,,,0.00,VWS V14.01,2013-08-28 16:47:00,
2013-08-28 09:48:00,77.1,65.3,29.76,West,261,1.0,1.0,67,0.00,,,0.00,VWS V15.00,2013-08-28 16:48:00,
2013-08-28 09:49:00,77.2,65.0,29.76,WSW,255,1.0,2.0,66,0.00,,,0.00,VWS V15.00,2013-08-28 16:49:00,
2013-08-28 09:50:00,77.2,65.0,29.76,WSW,255,0.0,2.0,66,0.00,,,0.00,VWS V15.00,2013-08-28 16:50:00,
2013-08-28 09:51:00,77.3,65.1,29.76,West,277,1.0,1.0,66,0.00,,,0.00,VWS V15.00,2013-08-28 16:51:00,
2013-08-28 09:52:00,77.4,65.2,29.76,WSW,252,1.0,1.0,66,0.00,,,0.00,VWS V15.00,2013-08-28 16:52:00,
2013-08-28 09:53:00,77.5,64.8,29.76,West,265,1.0,2.0,65,0.00,,,0.00,VWS V15.00,2013-08-28 16:53:00,
2013-08-28 09:54:00,77.6,64.9,29.76,WSW,252,0.0,1.0,65,0.00,,,0.00,VWS V15.00,2013-08-28 16:54:00,
2013-08-28 09:55:00,77.7,65.0,29.76,WSW,253,1.0,1.0,65,0.00,,,0.00,VWS V15.00,2013-08-28 16:55:00,
2013-08-28 09:56:00,77.8,65.1,29.76,NNW,345,1.0,2.0,65,0.00,,,0.00,VWS V15.00,2013-08-28 16:56:00,
2013-08-28 09:57:00,78.0,65.3,29.76,West,261,3.0,3.0,65,0.00,,,0.00,VWS V15.00,2013-08-28 16:57:00,
2013-08-28 09:58:00,78.1,64.5,29.76,SSW,202,0.0,3.0,63,0.00,,,0.00,VWS V15.00,2013-08-28 16:58:00,
2013-08-28 09:59:00,78.1,64.5,29.76,West,263,2.0,3.0,63,0.00,,,0.00,VWS V15.00,2013-08-28 16:59:00,
2013-08-28 10:00:00,78.1,64.5,29.76,WSW,254,1.0,2.0,63,0.00,,,0.00,VWS V15.00,2013-08-28 17:00:00,
2013-08-28 10:01:00,78.2,64.6,29.76,WSW,257,0.0,1.0,63,0.00,,,0.00,VWS V15.00,2013-08-28 17:01:00,
2013-08-28 10:02:00,78.2,64.6,29.76,NW,316,1.0,1.0,63,0.00,,,0.00,VWS V15.00,2013-08-28 17:02:00,
2013-08-28 10:03:00,78.3,64.2,29.76,NW,316,0.0,1.0,62,0.00,,,0.00,VWS V15.00,2013-08-28 17:03:00,
2013-08-28 10:04:00,78.4,64.3,29.76,NW,316,0.0,0.0,62,0.00,,,0.00,VWS V15.00,2013-08-28 17:04:00,
2013-08-28 10:05:00,78.6,63.6,29.76,West,266,2.0,2.0,60,0.00,,,0.00,VWS V15.00,2013-08-28 17:05:00,
2013-08-28 10:06:00,78.7,63.2,29.76,WSW,257,2.0,2.0,59,0.00,,,0.00,VWS V15.00,2013-08-28 17:06:00,
2013-08-28 10:07:00,78.8,63.3,29.76,WSW,249,2.0,3.0,59,0.00,,,0.00,VWS V15.00,2013-08-28 17:07:00,
2013-08-28 10:08:00,78.8,63.8,29.76,WSW,248,1.0,3.0,60,0.00,,,0.00,VWS V15.00,2013-08-28 17:08:00,
2013-08-28 10:09:00,78.8,63.8,29.76,WSW,249,0.0,1.0,60,0.00,,,0.00,VWS V15.00,2013-08-28 17:09:00,
2013-08-28 10:10:00,78.9,63.8,29.76,WSW,249,0.0,0.0,60,0.00,,,0.00,VWS V15.00,2013-08-28 17:10:00,
2013-08-28 10:11:00,79.1,63.6,29.76,WSW,252,0.0,1.0,59,0.00,,,0.00,VWS V15.00,2013-08-28 17:11:00,
2013-08-28 10:12:00,79.3,63.7,29.76,West,270,1.0,1.0,59,0.00,,,0.00,VWS V15.00,2013-08-28 17:12:00,
2013-08-28 10:13:00,79.4,63.8,29.76,West,259,0.0,1.0,59,0.00,,,0.00,VWS V15.00,2013-08-28 17:13:00,
2013-08-28 10:14:00,79.6,64.0,29.76,WNW,297,1.0,2.0,59,0.00,,,0.00,VWS V15.00,2013-08-28 17:14:00,
2013-08-28 10:15:00,79.7,64.1,29.76,West,266,0.0,2.0,59,0.00,,,0.00,VWS V15.00,2013-08-28 17:15:00,
2013-08-28 10:16:00,79.7,63.6,29.76,SW,225,2.0,4.0,58,0.00,,,0.00,VWS V15.00,2013-08-28 17:16:00,
2013-08-28 10:17:00,79.7,63.6,29.76,WSW,243,0.0,2.0,58,0.00,,,0.00,VWS V15.00,2013-08-28 17:17:00,
2013-08-28 10:18:00,79.8,63.7,29.76,WSW,246,0.0,1.0,58,0.00,,,0.00,VWS V15.00,2013-08-28 17:18:00,
2013-08-28 10:19:00,79.9,63.3,29.76,WSW,255,3.0,4.0,57,0.00,,,0.00,VWS V15.00,2013-08-28 17:19:00,
2013-08-28 10:20:00,79.9,63.3,29.76,West,273,1.0,4.0,57,0.00,,,0.00,VWS V15.00,2013-08-28 17:20:00,
2013-08-28 10:21:00,80.0,62.9,29.76,West,267,1.0,1.0,56,0.00,,,0.00,VWS V15.00,2013-08-28 17:21:00,
2013-08-28 10:22:00,80.1,62.5,29.76,West,266,0.0,1.0,55,0.00,,,0.00,VWS V15.00,2013-08-28 17:22:00,
2013-08-28 10:23:00,80.2,62.6,29.76,WSW,255,1.0,2.0,55,0.00,,,0.00,VWS V15.00,2013-08-28 17:23:00,
2013-08-28 10:24:00,80.3,63.2,29.76,WSW,248,2.0,3.0,56,0.00,,,0.00,VWS V15.00,2013-08-28 17:24:00,
2013-08-28 10:27:00,80.8,63.7,29.76,NW,316,1.0,1.0,56,0.00,,,0.00,VWS V15.00,2013-08-28 17:27:00,
2013-08-28 10:28:00,80.9,63.8,29.76,NW,315,1.0,2.0,56,0.00,,,0.00,VWS V15.00,2013-08-28 17:28:00,
2013-08-28 10:29:00,81.0,63.8,29.76,NW,314,0.0,1.0,56,0.00,,,0.00,VWS V15.00,2013-08-28 17:29:00,
2013-08-28 10:30:00,81.1,63.9,29.76,NW,314,0.0,1.0,56,0.00,,,0.00,VWS V15.00,2013-08-28 17:30:00,
2013-08-28 10:31:00,81.2,64.0,29.76,SSW,211,2.0,3.0,56,0.00,,,0.00,VWS V15.00,2013-08-28 17:31:00,
2013-08-28 10:32:00,81.4,64.2,29.76,West,281,2.0,3.0,56,0.00,,,0.00,VWS V15.00,2013-08-28 17:32:00,
2013-08-28 10:33:00,81.4,63.7,29.76,SW,219,1.0,3.0,55,0.00,,,0.00,VWS V15.00,2013-08-28 17:33:00,
2013-08-28 10:34:00,81.4,64.2,29.76,WSW,257,1.0,1.0,56,0.00,,,0.00,VWS V15.00,2013-08-28 17:34:00,
2013-08-28 10:35:00,81.5,64.3,29.76,West,263,3.0,4.0,56,0.00,,,0.00,VWS V15.00,2013-08-28 17:35:00,
2013-08-28 10:36:00,81.5,63.8,29.76,WSW,248,0.0,3.0,55,0.00,,,0.00,VWS V15.00,2013-08-28 17:36:00,
2013-08-28 10:37:00,81.5,63.8,29.76,SW,233,1.0,2.0,55,0.00,,,0.00,VWS V15.00,2013-08-28 17:37:00,
2013-08-28 10:38:00,81.6,64.4,29.76,WSW,255,1.0,2.0,56,0.00,,,0.00,VWS V15.00,2013-08-28 17:38:00,
2013-08-28 10:39:00,81.6,63.9,29.76,West,273,1.0,1.0,55,0.00,,,0.00,VWS V15.00,2013-08-28 17:39:00,
2013-08-28 10:40:00,81.8,64.1,29.76,WSW,239,2.0,4.0,55,0.00,,,0.00,VWS V15.00,2013-08-28 17:40:00,
2013-08-28 10:41:00,81.8,63.5,29.76,West,259,1.0,3.0,54,0.00,,,0.00,VWS V15.00,2013-08-28 17:41:00,
2013-08-28 10:42:00,81.9,63.6,29.76,West,259,0.0,1.0,54,0.00,,,0.00,VWS V15.00,2013-08-28 17:42:00,
2013-08-28 10:43:00,82.1,63.8,29.76,WSW,243,1.0,1.0,54,0.00,,,0.00,VWS V15.00,2013-08-28 17:43:00,
2013-08-28 10:44:00,82.2,63.9,29.76,NW,322,0.0,1.0,54,0.00,,,0.00,VWS V15.00,2013-08-28 17:44:00,
2013-08-28 10:45:00,82.4,64.1,29.76,SW,236,2.0,3.0,54,0.00,,,0.00,VWS V15.00,2013-08-28 17:45:00,
2013-08-28 11:37:00,91.1,64.8,29.76,NNW,330,3.0,3.0,42,0.00,,,0.00,VWS V14.01,2013-08-28 18:37:00,
2013-08-28 11:39:00,91.2,64.9,29.76,WNW,287,2.0,7.0,42,0.00,,,0.00,VWS V14.01,2013-08-28 18:39:00,
2013-08-28 11:40:00,91.2,64.9,29.76,West,266,3.0,6.0,42,0.00,,,0.00,VWS V14.01,2013-08-28 18:40:00,
2013-08-28 11:41:00,91.1,64.1,29.76,WSW,246,4.0,7.0,41,0.00,,,0.00,VWS V14.01,2013-08-28 18:41:00,
2013-08-28 11:43:00,90.9,64.7,29.76,WSW,243,4.0,8.0,42,0.00,,,0.00,VWS V14.01,2013-08-28 18:43:00,
2013-08-28 11:47:00,90.7,65.2,29.76,WSW,252,4.0,6.0,43,0.00,,,0.00,VWS V14.01,2013-08-28 18:47:00,
2013-08-28 11:48:00,90.8,64.6,29.76,West,263,4.0,5.0,42,0.00,,,0.00,VWS V14.01,2013-08-28 18:48:00,
2013-08-28 11:51:00,90.9,64.7,29.76,NNE,22,4.0,4.0,42,0.00,,,0.00,VWS V14.01,2013-08-28 18:51:00,
2013-08-28 11:52:00,91.0,64.7,29.76,NNE,33,1.0,4.0,42,0.00,,,0.00,VWS V14.01,2013-08-28 18:52:00,
2013-08-28 11:54:00,91.3,65.0,29.76,WSW,242,3.0,4.0,42,0.00,,,0.00,VWS V14.01,2013-08-28 18:54:00,
2013-08-28 11:56:00,91.6,65.3,29.76,WSW,241,4.0,4.0,42,0.00,,,0.00,VWS V14.01,2013-08-28 18:56:00,
2013-08-28 11:57:00,91.8,65.5,29.76,West,281,1.0,5.0,42,0.00,,,0.00,VWS V14.01,2013-08-28 18:57:00,
2013-08-28 12:01:00,92.3,65.2,29.76,West,267,2.0,3.0,41,0.00,,,0.00,VWS V14.01,2013-08-28 19:01:00,
2013-08-28 12:02:00,92.4,65.3,29.76,WSW,248,2.0,3.0,41,0.00,,,0.00,VWS V14.01,2013-08-28 19:02:00,
2013-08-28 12:03:00,92.3,64.5,29.76,SW,232,1.0,4.0,40,0.00,,,0.00,VWS V14.01,2013-08-28 19:03:00,
2013-08-28 12:04:00,92.3,65.2,29.76,NNW,345,1.0,2.0,41,0.00,,,0.00,VWS V14.01,2013-08-28 19:04:00,
2013-08-28 12:07:00,92.5,65.4,29.76,NNW,335,1.0,2.0,41,0.00,,,0.00,VWS V14.01,2013-08-28 19:07:00,
2013-08-28 12:08:00,92.6,65.5,29.76,WSW,253,2.0,3.0,41,0.00,,,0.00,VWS V14.01,2013-08-28 19:08:00,
2013-08-28 12:11:00,92.5,64.7,29.76,WSW,243,2.0,5.0,40,0.00,,,0.00,VWS V14.01,2013-08-28 19:11:00,
2013-08-28 12:13:00,92.3,65.2,29.76,West,281,2.0,4.0,41,0.00,,,0.00,VWS V14.01,2013-08-28 19:13:00,
2013-08-28 12:16:00,93.0,65.8,29.76,NW,326,3.0,5.0,41,0.00,,,0.00,VWS V14.01,2013-08-28 19:16:00,
2013-08-28 12:17:00,93.2,66.0,29.76,WSW,256,2.0,3.0,41,0.00,,,0.00,VWS V14.01,2013-08-28 19:17:00,
2013-08-28 12:18:00,93.4,65.5,29.75,NW,314,1.0,2.0,40,0.00,,,0.00,VWS V14.01,2013-08-28 19:18:00,
2013-08-28 12:19:00,93.5,66.3,29.75,NNW,345,6.0,8.0,41,0.00,,,0.00,VWS V14.01,2013-08-28 19:19:00,
2013-08-28 12:21:00,93.7,65.8,29.76,North,350,2.0,4.0,40,0.00,,,0.00,VWS V14.01,2013-08-28 19:21:00,
2013-08-28 12:23:00,93.8,65.8,29.75,WSW,248,2.0,3.0,40,0.00,,,0.00,VWS V14.01,2013-08-28 19:23:00,
2013-08-28 12:26:00,94.0,65.3,29.76,SW,236,6.0,6.0,39,0.00,,,0.00,VWS V14.01,2013-08-28 19:26:00,
2013-08-28 12:27:00,93.9,65.9,29.76,NW,305,2.0,7.0,40,0.00,,,0.00,VWS V14.01,2013-08-28 19:27:00,
2013-08-28 12:31:00,94.0,66.0,29.76,NW,314,2.0,4.0,40,0.00,,,0.00,VWS V14.01,2013-08-28 19:31:00,
2013-08-28 12:33:00,94.1,65.4,29.75,WNW,303,2.0,2.0,39,0.00,,,0.00,VWS V14.01,2013-08-28 19:33:00,
2013-08-28 12:35:00,91.1,64.8,29.76,NNW,330,3.0,3.0,42,0.00,,,0.00,VWS V15.00,2013-08-28 19:35:00,
2013-08-28 12:36:00,91.1,64.8,29.76,North,353,2.0,4.0,42,0.00,,,0.00,VWS V15.00,2013-08-28 19:36:00,
2013-08-28 12:37:00,91.2,64.9,29.76,WNW,287,2.0,7.0,42,0.00,,,0.00,VWS V15.00,2013-08-28 19:37:00,
2013-08-28 12:38:00,93.3,64.7,29.76,North,5,3.0,3.0,39,0.00,,,0.00,VWS V14.01,2013-08-28 19:38:00,
2013-08-28 12:39:00,93.3,64.7,29.76,North,4,4.0,6.0,39,0.00,,,0.00,VWS V14.01,2013-08-28 19:39:00,
2013-08-28 12:40:00,93.2,64.6,29.76,WSW,242,2.0,4.0,39,0.00,,,0.00,VWS V14.01,2013-08-28 19:40:00,
2013-08-28 12:41:00,90.9,64.7,29.76,WSW,243,4.0,8.0,42,0.00,,,0.00,VWS V15.00,2013-08-28 19:41:00,
2013-08-28 12:42:00,90.7,64.5,29.76,SW,218,3.0,6.0,42,0.00,,,0.00,VWS V15.00,2013-08-28 19:42:00,
2013-08-28 12:43:00,93.3,64.7,29.75,NNW,333,3.0,5.0,39,0.00,,,0.00,VWS V14.01,2013-08-28 19:43:00,
2013-08-28 12:44:00,93.4,64.8,29.76,SW,228,2.0,4.0,39,0.00,,,0.00,VWS V14.01,2013-08-28 19:44:00,
2013-08-28 12:45:00,93.5,64.8,29.75,West,269,2.0,6.0,39,0.00,,,0.00,VWS V14.01,2013-08-28 19:45:00,
2013-08-28 12:46:00,90.8,64.6,29.76,West,263,4.0,5.0,42,0.00,,,0.00,VWS V15.00,2013-08-28 19:46:00,
2013-08-28 12:47:00,90.8,64.6,29.76,SW,233,1.0,4.0,42,0.00,,,0.00,VWS V15.00,2013-08-28 19:47:00,
2013-08-28 12:48:00,93.8,65.1,29.76,West,268,3.0,3.0,39,0.00,,,0.00,VWS V14.01,2013-08-28 19:48:00,
2013-08-28 12:49:00,93.8,64.4,29.76,NW,324,2.0,4.0,38,0.00,,,0.00,VWS V14.01,2013-08-28 19:49:00,
2013-08-28 12:50:00,93.6,64.2,29.75,NNW,331,4.0,4.0,38,0.00,,,0.00,VWS V14.01,2013-08-28 19:50:00,
2013-08-28 12:51:00,91.1,64.8,29.76,West,281,2.0,2.0,42,0.00,,,0.00,VWS V15.00,2013-08-28 19:51:00,
2013-08-28 12:52:00,91.3,65.0,29.76,WSW,242,3.0,4.0,42,0.00,,,0.00,VWS V15.00,2013-08-28 19:52:00,
2013-08-28 12:53:00,91.4,65.1,29.77,WSW,243,1.0,3.0,42,0.00,,,0.00,VWS V15.00,2013-08-28 19:53:00,
2013-08-28 12:54:00,93.2,63.8,29.75,NNW,328,2.0,6.0,38,0.00,,,0.00,VWS V14.01,2013-08-28 19:54:00,
2013-08-28 12:55:00,91.8,65.5,29.76,West,281,1.0,5.0,42,0.00,,,0.00,VWS V15.00,2013-08-28 19:55:00,
2013-08-28 12:56:00,91.9,65.6,29.76,NNW,345,2.0,3.0,42,0.00,,,0.00,VWS V15.00,2013-08-28 19:56:00,
2013-08-28 12:57:00,93.5,63.3,29.75,NW,309,3.0,5.0,37,0.00,,,0.00,VWS V14.01,2013-08-28 19:57:00,
2013-08-28 12:58:00,93.6,63.4,29.75,North,8,2.0,5.0,37,0.00,,,0.00,VWS V14.01,2013-08-28 19:58:00,
2013-08-28 12:59:00,93.6,63.4,29.75,NNW,331,1.0,4.0,37,0.00,,,0.00,VWS V14.01,2013-08-28 19:59:00,
2013-08-28 13:00:00,92.4,65.3,29.76,WSW,248,2.0,3.0,41,0.00,,,0.00,VWS V15.00,2013-08-28 20:00:00,
2013-08-28 13:01:00,92.3,64.5,29.76,SW,232,1.0,4.0,40,0.00,,,0.00,VWS V15.00,2013-08-28 20:01:00,
2013-08-28 13:02:00,93.6,63.4,29.75,NW,316,2.0,3.0,37,0.00,,,0.00,VWS V14.01,2013-08-28 20:02:00,
2013-08-28 13:03:00,93.7,63.5,29.75,NW,324,3.0,3.0,37,0.00,,,0.00,VWS V14.01,2013-08-28 20:03:00,
2013-08-28 13:04:00,93.7,62.7,29.75,NW,316,4.0,5.0,36,0.00,,,0.00,VWS V14.01,2013-08-28 20:04:00,
2013-08-28 13:05:00,92.5,65.4,29.76,NNW,335,1.0,2.0,41,0.00,,,0.00,VWS V15.00,2013-08-28 20:05:00,
2013-08-28 13:06:00,92.6,65.5,29.76,WSW,253,2.0,3.0,41,0.00,,,0.00,VWS V15.00,2013-08-28 20:06:00,
2013-08-28 13:07:00,93.3,62.4,29.75,North,1,5.0,5.0,36,0.00,,,0.00,VWS V14.01,2013-08-28 20:07:00,
2013-08-28 13:08:00,93.3,62.4,29.75,NNW,338,2.0,3.0,36,0.00,,,0.00,VWS V14.01,2013-08-28 20:08:00,
2013-08-28 13:09:00,93.3,63.2,29.75,NNW,338,3.0,3.0,37,0.00,,,0.00,VWS V14.01,2013-08-28 20:09:00,
2013-08-28 13:10:00,93.4,63.3,29.75,North,10,1.0,3.0,37,0.00,,,0.00,VWS V14.01,2013-08-28 20:10:00,
2013-08-28 13:11:00,93.6,63.4,29.75,North,6,5.0,6.0,37,0.00,,,0.00,VWS V14.01,2013-08-28 20:11:00,
2013-08-28 13:12:00,92.5,65.4,29.76,WNW,294,1.0,2.0,41,0.00,,,0.00,VWS V15.00,2013-08-28 20:12:00,
2013-08-28 13:13:00,93.9,62.9,29.75,WSW,249,5.0,7.0,36,0.00,,,0.00,VWS V14.01,2013-08-28 20:13:00,
2013-08-28 13:14:00,93.0,65.8,29.76,NW,326,3.0,5.0,41,0.00,,,0.00,VWS V15.00,2013-08-28 20:14:00,
2013-08-28 13:15:00,93.5,62.6,29.75,West,262,4.0,8.0,36,0.00,,,0.00,VWS V14.01,2013-08-28 20:15:00,
2013-08-28 13:16:00,93.5,63.3,29.75,NW,325,4.0,4.0,37,0.00,,,0.00,VWS V14.01,2013-08-28 20:16:00,
2013-08-28 13:17:00,93.5,66.3,29.75,NNW,345,6.0,8.0,41,0.00,,,0.00,VWS V15.00,2013-08-28 20:17:00,
2013-08-28 13:18:00,93.6,62.7,29.75,SW,236,1.0,3.0,36,0.00,,,0.00,VWS V14.01,2013-08-28 20:18:00,
2013-08-28 13:19:00,93.7,65.8,29.76,North,350,2.0,4.0,40,0.00,,,0.00,VWS V15.00,2013-08-28 20:19:00,
2013-08-28 13:20:00,93.8,65.8,29.75,NW,322,2.0,4.0,40,0.00,,,0.00,VWS V15.00,2013-08-28 20:20:00,
2013-08-28 13:21:00,93.9,62.9,29.75,NNW,334,2.0,5.0,36,0.00,,,0.00,VWS V14.01,2013-08-28 20:21:00,
2013-08-28 13:22:00,94.1,62.3,29.75,WNW,290,2.0,6.0,35,0.00,,,0.00,VWS V14.01,2013-08-28 20:22:00,
2013-08-28 13:23:00,94.2,62.4,29.75,NW,316,5.0,5.0,35,0.00,,,0.00,VWS V14.01,2013-08-28 20:23:00,
2013-08-28 13:24:00,94.0,65.3,29.76,SW,236,6.0,6.0,39,0.00,,,0.00,VWS V15.00,2013-08-28 20:24:00,
2013-08-28 13:25:00,93.9,65.9,29.76,NW,305,2.0,7.0,40,0.00,,,0.00,VWS V15.00,2013-08-28 20:25:00,
2013-08-28 13:26:00,94.3,62.5,29.75,West,270,3.0,3.0,35,0.00,,,0.00,VWS V14.01,2013-08-28 20:26:00,
2013-08-28 13:27:00,94.5,62.6,29.75,NNW,328,3.0,4.0,35,0.00,,,0.00,VWS V14.01,2013-08-28 20:27:00,
2013-08-28 13:28:00,94.6,62.7,29.75,North,356,3.0,6.0,35,0.00,,,0.00,VWS V14.01,2013-08-28 20:28:00,
2013-08-28 13:29:00,94.0,66.0,29.76,NW,314,2.0,4.0,40,0.00,,,0.00,VWS V15.00,2013-08-28 20:29:00,
2013-08-28 13:30:00,94.5,61.8,29.75,NW,316,3.0,7.0,34,0.00,,,0.00,VWS V14.01,2013-08-28 20:30:00,
2013-08-28 13:31:00,94.1,65.4,29.75,WNW,303,2.0,2.0,39,0.00,,,0.00,VWS V15.00,2013-08-28 20:31:00,
2013-08-28 13:32:00,94.1,65.4,29.75,NNW,340,5.0,8.0,39,0.00,,,0.00,VWS V15.00,2013-08-28 20:32:00,
2013-08-28 13:33:00,94.2,62.4,29.75,North,349,3.0,7.0,35,0.00,,,0.00,VWS V14.01,2013-08-28 20:33:00,
2013-08-28 13:34:00,94.2,62.4,29.75,West,280,2.0,3.0,35,0.00,,,0.00,VWS V14.01,2013-08-28 20:34:00,
2013-08-28 13:35:00,93.4,64.8,29.75,WNW,285,3.0,8.0,39,0.00,,,0.00,VWS V15.00,2013-08-28 20:35:00,
2013-08-28 13:36:00,93.3,64.7,29.76,North,5,2.0,3.0,39,0.00,,,0.00,VWS V15.00,2013-08-28 20:36:00,
2013-08-28 13:37:00,93.3,64.7,29.76,North,4,4.0,6.0,39,0.00,,,0.00,VWS V15.00,2013-08-28 20:37:00,
2013-08-28 13:38:00,94.6,62.7,29.75,WSW,247,2.0,4.0,35,0.00,,,0.00,VWS V14.01,2013-08-28 20:38:00,
2013-08-28 13:39:00,94.6,62.7,29.75,NNW,345,2.0,4.0,35,0.00,,,0.00,VWS V14.01,2013-08-28 20:39:00,
2013-08-28 13:40:00,94.8,62.9,29.75,SW,226,1.0,2.0,35,0.00,,,0.00,VWS V14.01,2013-08-28 20:40:00,
2013-08-28 13:41:00,95.0,63.1,29.75,West,267,4.0,5.0,35,0.00,,,0.00,VWS V14.01,2013-08-28 20:41:00,
2013-08-28 13:42:00,95.0,63.1,29.75,WSW,256,6.0,8.0,35,0.00,,,0.00,VWS V14.01,2013-08-28 20:42:00,
2013-08-28 13:43:00,93.5,64.8,29.75,West,269,2.0,6.0,39,0.00,,,0.00,VWS V15.00,2013-08-28 20:43:00,
2013-08-28 13:44:00,93.6,64.9,29.75,WNW,293,2.0,4.0,39,0.00,,,0.00,VWS V15.00,2013-08-28 20:44:00,
2013-08-28 13:45:00,94.7,62.8,29.75,NNE,32,5.0,7.0,35,0.00,,,0.00,VWS V14.01,2013-08-28 20:45:00,
2013-08-28 13:46:00,93.8,65.1,29.76,NW,312,2.0,4.0,39,0.00,,,0.00,VWS V15.00,2013-08-28 20:46:00,
2013-08-28 13:47:00,94.5,62.6,29.75,North,358,2.0,3.0,35,0.00,,,0.00,VWS V14.01,2013-08-28 20:47:00,
2013-08-28 13:48:00,94.5,62.6,29.75,North,350,4.0,7.0,35,0.00,,,0.00,VWS V14.01,2013-08-28 20:48:00,
2013-08-28 13:49:00,93.5,64.1,29.76,North,9,6.0,6.0,38,0.00,,,0.00,VWS V15.00,2013-08-28 20:49:00,
2013-08-28 13:50:00,93.3,63.9,29.76,North,349,3.0,6.0,38,0.00,,,0.00,VWS V15.00,2013-08-28 20:50:00,
2013-08-28 13:51:00,94.7,62.8,29.75,WNW,302,1.0,5.0,35,0.00,,,0.00,VWS V14.01,2013-08-28 20:51:00,
2013-08-28 13:52:00,93.2,63.8,29.75,NNW,328,2.0,6.0,38,0.00,,,0.00,VWS V15.00,2013-08-28 20:52:00,
2013-08-28 13:53:00,93.3,63.9,29.75,North,10,3.0,3.0,38,0.00,,,0.00,VWS V15.00,2013-08-28 20:53:00,
2013-08-28 13:54:00,94.8,62.9,29.75,North,1,2.0,4.0,35,0.00,,,0.00,VWS V14.01,2013-08-28 20:54:00,
2013-08-28 13:55:00,93.5,63.3,29.75,NW,309,3.0,5.0,37,0.00,,,0.00,VWS V15.00,2013-08-28 20:55:00,
2013-08-28 13:56:00,95.0,63.9,29.74,WNW,288,1.0,2.0,36,0.00,,,0.00,VWS V14.01,2013-08-28 20:56:00,
2013-08-28 13:57:00,95.1,63.2,29.75,North,354,5.0,7.0,35,0.00,,,0.00,VWS V14.01,2013-08-28 20:57:00,
2013-08-28 13:58:00,95.0,63.9,29.74,NNW,345,4.0,5.0,36,0.00,,,0.00,VWS V14.01,2013-08-28 20:58:00,
2013-08-28 13:59:00,93.6,62.7,29.76,NNW,338,3.0,5.0,36,0.00,,,0.00,VWS V15.00,2013-08-28 20:59:00,
2013-08-28 14:00:00,94.9,63.8,29.74,NNW,334,8.0,8.0,36,0.00,,,0.00,VWS V14.01,2013-08-28 21:00:00,
2013-08-28 14:01:00,93.7,63.5,29.75,NNW,346,2.0,4.0,37,0.00,,,0.00,VWS V15.00,2013-08-28 21:01:00,
2013-08-28 14:02:00,95.0,63.9,29.74,WNW,290,1.0,2.0,36,0.00,,,0.00,VWS V14.01,2013-08-28 21:02:00,
2013-08-28 14:03:00,95.2,64.1,29.74,WSW,238,2.0,3.0,36,0.00,,,0.00,VWS V14.01,2013-08-28 21:03:00,
2013-08-28 14:04:00,95.4,63.4,29.74,NNW,330,1.0,4.0,35,0.00,,,0.00,VWS V14.01,2013-08-28 21:04:00,
2013-08-28 14:05:00,93.3,62.4,29.75,North,1,5.0,5.0,36,0.00,,,0.00,VWS V15.00,2013-08-28 21:05:00,
2013-08-28 14:06:00,93.3,62.4,29.75,North,359,3.0,6.0,36,0.00,,,0.00,VWS V15.00,2013-08-28 21:06:00,
2013-08-28 14:07:00,93.3,63.2,29.75,NNW,338,3.0,3.0,37,0.00,,,0.00,VWS V15.00,2013-08-28 21:07:00,
2013-08-28 14:08:00,96.0,64.0,29.74,NNE,32,1.0,5.0,35,0.00,,,0.00,VWS V14.01,2013-08-28 21:08:00,
2013-08-28 14:09:00,95.9,63.9,29.74,NNE,16,3.0,6.0,35,0.00,,,0.00,VWS V14.01,2013-08-28 21:09:00,
2013-08-28 14:10:00,95.8,63.8,29.74,NNW,331,1.0,5.0,35,0.00,,,0.00,VWS V14.01,2013-08-28 21:10:00,
2013-08-28 14:11:00,95.8,63.8,29.74,NW,316,2.0,4.0,35,0.00,,,0.00,VWS V14.01,2013-08-28 21:11:00,
2013-08-28 14:12:00,93.7,62.7,29.75,WSW,239,5.0,6.0,36,0.00,,,0.00,VWS V15.00,2013-08-28 21:12:00,
2013-08-28 14:13:00,93.5,62.6,29.75,West,262,4.0,8.0,36,0.00,,,0.00,VWS V15.00,2013-08-28 21:13:00,
2013-08-28 14:14:00,95.8,63.8,29.74,SW,232,2.0,4.0,35,0.00,,,0.00,VWS V14.01,2013-08-28 21:14:00,
2013-08-28 14:15:00,93.6,62.7,29.75,West,262,2.0,7.0,36,0.00,,,0.00,VWS V15.00,2013-08-28 21:15:00,
2013-08-28 14:16:00,93.6,62.7,29.75,SW,236,1.0,3.0,36,0.00,,,0.00,VWS V15.00,2013-08-28 21:16:00,
2013-08-28 14:17:00,96.2,64.1,29.74,West,277,2.0,4.0,35,0.00,,,0.00,VWS V14.01,2013-08-28 21:17:00,
2013-08-28 14:18:00,93.8,62.8,29.75,North,356,4.0,5.0,36,0.00,,,0.00,VWS V15.00,2013-08-28 21:18:00,
2013-08-28 14:19:00,96.0,64.0,29.74,WNW,298,1.0,6.0,35,0.00,,,0.00,VWS V14.01,2013-08-28 21:19:00,
2013-08-28 14:20:00,95.9,63.9,29.74,WSW,252,4.0,4.0,35,0.00,,,0.00,VWS V14.01,2013-08-28 21:20:00,
2013-08-28 14:22:00,95.9,64.7,29.74,WNW,297,5.0,6.0,36,0.00,,,0.00,VWS V14.01,2013-08-28 21:22:00,
2013-08-28 14:23:00,94.3,61.7,29.75,West,266,2.0,4.0,34,0.00,,,0.00,VWS V15.00,2013-08-28 21:23:00,
2013-08-28 14:24:00,95.7,63.7,29.74,NW,322,4.0,5.0,35,0.00,,,0.00,VWS V14.01,2013-08-28 21:24:00,
2013-08-28 14:25:00,94.5,62.6,29.75,NNW,328,3.0,4.0,35,0.00,,,0.00,VWS V15.00,2013-08-28 21:25:00,
2013-08-28 14:26:00,95.3,64.2,29.73,NW,311,2.0,4.0,36,0.00,,,0.00,VWS V14.01,2013-08-28 21:26:00,
2013-08-28 14:27:00,95.1,64.0,29.73,NW,312,5.0,7.0,36,0.00,,,0.00,VWS V14.01,2013-08-28 21:27:00,
2013-08-28 14:28:00,94.5,61.8,29.75,NW,316,3.0,7.0,34,0.00,,,0.00,VWS V15.00,2013-08-28 21:28:00,
2013-08-28 14:29:00,94.8,63.7,29.73,North,352,3.0,3.0,36,0.00,,,0.00,VWS V14.01,2013-08-28 21:29:00,
2013-08-28 14:30:00,94.7,63.6,29.73,North,358,5.0,7.0,36,0.00,,,0.00,VWS V14.01,2013-08-28 21:30:00,
2013-08-28 14:31:00,94.6,63.5,29.73,NNW,342,5.0,8.0,36,0.00,,,0.00,VWS V14.01,2013-08-28 21:31:00,
2013-08-28 14:32:00,94.6,63.5,29.73,NNW,336,3.0,7.0,36,0.00,,,0.00,VWS V14.01,2013-08-28 21:32:00,
2013-08-28 14:33:00,94.3,62.5,29.75,WSW,247,2.0,4.0,35,0.00,,,0.00,VWS V15.00,2013-08-28 21:33:00,
2013-08-28 14:34:00,94.4,64.1,29.73,NW,314,8.0,8.0,37,0.00,,,0.00,VWS V14.01,2013-08-28 21:34:00,
2013-08-28 14:35:00,94.5,62.6,29.74,SSW,201,1.0,4.0,35,0.00,,,0.00,VWS V15.00,2013-08-28 21:35:00,
2013-08-28 14:36:00,94.6,62.7,29.75,WSW,247,2.0,4.0,35,0.00,,,0.00,VWS V15.00,2013-08-28 21:36:00,
2013-08-28 14:37:00,94.1,64.6,29.73,North,349,7.0,7.0,38,0.00,,,0.00,VWS V14.01,2013-08-28 21:37:00,
2013-08-28 14:38:00,94.1,63.9,29.73,NNW,348,4.0,7.0,37,0.00,,,0.00,VWS V14.01,2013-08-28 21:38:00,
2013-08-28 14:39:00,95.0,63.1,29.75,West,267,4.0,5.0,35,0.00,,,0.00,VWS V15.00,2013-08-28 21:39:00,
2013-08-28 14:40:00,94.1,63.9,29.73,NNW,330,3.0,6.0,37,0.00,,,0.00,VWS V14.01,2013-08-28 21:40:00,
2013-08-28 14:41:00,94.1,63.9,29.73,ENE,60,4.0,6.0,37,0.00,,,0.00,VWS V14.01,2013-08-28 21:41:00,
2013-08-28 14:42:00,94.8,62.9,29.75,NNW,338,4.0,4.0,35,0.00,,,0.00,VWS V15.00,2013-08-28 21:42:00,
2013-08-28 14:43:00,94.7,62.8,29.75,NNE,32,5.0,7.0,35,0.00,,,0.00,VWS V15.00,2013-08-28 21:43:00,
2013-08-28 14:44:00,94.6,62.7,29.75,WNW,302,3.0,6.0,35,0.00,,,0.00,VWS V15.00,2013-08-28 21:44:00,
2013-08-28 14:45:00,94.3,64.1,29.73,North,356,8.0,9.0,37,0.00,,,0.00,VWS V14.01,2013-08-28 21:45:00,
2013-08-28 14:46:00,94.4,64.1,29.73,NNE,22,7.0,7.0,37,0.00,,,0.00,VWS V14.01,2013-08-28 21:46:00,
2013-08-28 14:47:00,94.5,64.2,29.72,NNW,334,5.0,9.0,37,0.00,,,0.00,VWS V14.01,2013-08-28 21:47:00,
2013-08-28 14:48:00,94.6,63.5,29.74,NW,305,2.0,5.0,36,0.00,,,0.00,VWS V15.00,2013-08-28 21:48:00,
2013-08-28 14:49:00,94.7,62.8,29.75,WNW,302,1.0,5.0,35,0.00,,,0.00,VWS V15.00,2013-08-28 21:49:00,
2013-08-28 14:50:00,94.6,64.3,29.72,North,3,3.0,6.0,37,0.00,,,0.00,VWS V14.01,2013-08-28 21:50:00,
2013-08-28 14:51:00,94.8,62.9,29.75,WNW,288,1.0,5.0,35,0.00,,,0.00,VWS V15.00,2013-08-28 21:51:00,
2013-08-28 14:52:00,94.7,63.6,29.72,NW,324,6.0,7.0,36,0.00,,,0.00,VWS V14.01,2013-08-28 21:52:00,
2013-08-28 14:53:00,94.9,63.8,29.75,NNE,23,2.0,3.0,36,0.00,,,0.00,VWS V15.00,2013-08-28 21:53:00,
2013-08-28 14:54:00,95.0,63.9,29.74,WNW,288,1.0,2.0,36,0.00,,,0.00,VWS V15.00,2013-08-28 21:54:00,
2013-08-28 14:55:00,94.3,64.1,29.72,NW,305,2.0,9.0,37,0.00,,,0.00,VWS V14.01,2013-08-28 21:55:00,
2013-08-28 14:56:00,95.0,63.1,29.74,North,352,1.0,6.0,35,0.00,,,0.00,VWS V15.00,2013-08-28 21:56:00,
2013-08-28 14:57:00,94.2,64.0,29.72,North,352,3.0,6.0,37,0.00,,,0.00,VWS V14.01,2013-08-28 21:57:00,
2013-08-28 14:58:00,94.9,63.8,29.74,NNW,334,8.0,8.0,36,0.00,,,0.00,VWS V15.00,2013-08-28 21:58:00,
2013-08-28 14:59:00,94.4,64.1,29.72,West,264,1.0,5.0,37,0.00,,,0.00,VWS V14.01,2013-08-28 21:59:00,
2013-08-28 15:00:00,94.5,64.2,29.72,NW,326,4.0,8.0,37,0.00,,,0.00,VWS V14.01,2013-08-28 22:00:00,
2013-08-28 15:01:00,95.2,64.1,29.74,WSW,238,2.0,3.0,36,0.00,,,0.00,VWS V15.00,2013-08-28 22:01:00,
2013-08-28 15:02:00,94.5,64.2,29.72,NNW,328,4.0,7.0,37,0.00,,,0.00,VWS V14.01,2013-08-28 22:02:00,
2013-08-28 15:03:00,95.6,63.6,29.74,West,270,2.0,3.0,35,0.00,,,0.00,VWS V15.00,2013-08-28 22:03:00,
2013-08-28 15:04:00,95.9,63.9,29.74,West,268,4.0,4.0,35,0.00,,,0.00,VWS V15.00,2013-08-28 22:04:00,
2013-08-28 15:05:00,94.4,64.1,29.72,NNW,345,5.0,8.0,37,0.00,,,0.00,VWS V14.01,2013-08-28 22:05:00,
2013-08-28 15:06:00,96.0,64.0,29.74,NNE,32,1.0,5.0,35,0.00,,,0.00,VWS V15.00,2013-08-28 22:06:00,
2013-08-28 15:07:00,95.9,63.9,29.74,NNE,16,3.0,6.0,35,0.00,,,0.00,VWS V15.00,2013-08-28 22:07:00,
2013-08-28 15:08:00,94.7,64.4,29.72,NNW,331,6.0,6.0,37,0.00,,,0.00,VWS V14.01,2013-08-28 22:08:00,
2013-08-28 15:09:00,95.8,63.8,29.74,NW,316,2.0,4.0,35,0.00,,,0.00,VWS V15.00,2013-08-28 22:09:00,
2013-08-28 15:10:00,94.7,63.6,29.72,North,5,6.0,7.0,36,0.00,,,0.00,VWS V14.01,2013-08-28 22:10:00,
2013-08-28 15:11:00,94.5,64.2,29.72,North,353,4.0,7.0,37,0.00,,,0.00,VWS V14.01,2013-08-28 22:11:00,
2013-08-28 15:12:00,95.8,63.8,29.74,SW,232,2.0,4.0,35,0.00,,,0.00,VWS V15.00,2013-08-28 22:12:00,
2013-08-28 15:13:00,94.4,64.1,29.72,WNW,290,1.0,3.0,37,0.00,,,0.00,VWS V14.01,2013-08-28 22:13:00,
2013-08-28 15:14:00,94.5,64.2,29.72,North,1,2.0,4.0,37,0.00,,,0.00,VWS V14.01,2013-08-28 22:14:00,
2013-08-28 15:15:00,94.7,64.4,29.72,WNW,292,2.0,2.0,37,0.00,,,0.00,VWS V14.01,2013-08-28 22:15:00,
2013-08-28 15:16:00,94.9,64.6,29.72,NW,319,2.0,3.0,37,0.00,,,0.00,VWS V14.01,2013-08-28 22:16:00,
2013-08-28 15:17:00,95.1,64.8,29.72,NW,316,4.0,7.0,37,0.00,,,0.00,VWS V14.01,2013-08-28 22:17:00,
2013-08-28 15:18:00,95.9,63.9,29.74,WSW,252,4.0,4.0,35,0.00,,,0.00,VWS V15.00,2013-08-28 22:18:00,
2013-08-28 15:19:00,95.4,64.2,29.72,NW,307,2.0,4.0,36,0.00,,,0.00,VWS V14.01,2013-08-28 22:19:00,
2013-08-28 15:20:00,95.5,64.3,29.72,WNW,285,2.0,2.0,36,0.00,,,0.00,VWS V14.01,2013-08-28 22:20:00,
2013-08-28 15:21:00,95.5,64.3,29.72,West,276,2.0,5.0,36,0.00,,,0.00,VWS V14.01,2013-08-28 22:21:00,
2013-08-28 15:22:00,95.7,63.7,29.74,NW,322,4.0,5.0,35,0.00,,,0.00,VWS V15.00,2013-08-28 22:22:00,
2013-08-28 15:23:00,95.5,64.3,29.73,West,277,2.0,6.0,36,0.00,,,0.00,VWS V15.00,2013-08-28 22:23:00,
2013-08-28 15:24:00,95.5,64.3,29.72,NNW,347,4.0,7.0,36,0.00,,,0.00,VWS V14.01,2013-08-28 22:24:00,
2013-08-28 15:25:00,95.2,64.1,29.72,WNW,284,1.0,4.0,36,0.00,,,0.00,VWS V14.01,2013-08-28 22:25:00,
2013-08-28 15:26:00,94.9,63.8,29.73,NNW,338,5.0,7.0,36,0.00,,,0.00,VWS V15.00,2013-08-28 22:26:00,
2013-08-28 15:27:00,94.8,63.7,29.73,NW,314,3.0,9.0,36,0.00,,,0.00,VWS V15.00,2013-08-28 22:27:00,
2013-08-28 15:28:00,94.7,63.6,29.73,North,358,5.0,7.0,36,0.00,,,0.00,VWS V15.00,2013-08-28 22:28:00,
2013-08-28 15:29:00,95.0,64.7,29.72,NNE,12,6.0,8.0,37,0.00,,,0.00,VWS V14.01,2013-08-28 22:29:00,
2013-08-28 15:30:00,94.9,64.6,29.72,NW,307,1.0,6.0,37,0.00,,,0.00,VWS V14.01,2013-08-28 22:30:00,
2013-08-28 15:31:00,94.5,64.2,29.73,NW,316,7.0,7.0,37,0.00,,,0.00,VWS V15.00,2013-08-28 22:31:00,
2013-08-28 15:32:00,94.4,64.1,29.73,NNW,341,6.0,7.0,37,0.00,,,0.00,VWS V15.00,2013-08-28 22:32:00,
2013-08-28 15:33:00,95.0,64.7,29.72,WNW,295,3.0,4.0,37,0.00,,,0.00,VWS V14.01,2013-08-28 22:33:00,
2013-08-28 15:34:00,95.1,64.8,29.71,North,349,1.0,5.0,37,0.00,,,0.00,VWS V14.01,2013-08-28 22:34:00,
2013-08-28 15:35:00,95.2,64.8,29.71,NNW,345,4.0,4.0,37,0.00,,,0.00,VWS V14.01,2013-08-28 22:35:00,
2013-08-28 15:36:00,95.2,64.8,29.71,NNW,340,4.0,5.0,37,0.00,,,0.00,VWS V14.01,2013-08-28 22:36:00,
2013-08-28 15:37:00,94.1,63.9,29.73,WNW,301,4.0,7.0,37,0.00,,,0.00,VWS V15.00,2013-08-28 22:37:00,
2013-08-28 15:38:00,94.1,63.9,29.73,WNW,297,3.0,6.0,37,0.00,,,0.00,VWS V15.00,2013-08-28 22:38:00,
2013-08-28 15:39:00,95.2,64.8,29.71,WNW,284,3.0,6.0,37,0.00,,,0.00,VWS V14.01,2013-08-28 22:39:00,
2013-08-28 15:40:00,95.3,64.9,29.71,North,11,3.0,5.0,37,0.00,,,0.00,VWS V14.01,2013-08-28 22:40:00,
2013-08-28 15:41:00,94.2,64.0,29.73,NNW,340,2.0,6.0,37,0.00,,,0.00,VWS V15.00,2013-08-28 22:41:00,
2013-08-28 15:42:00,95.5,65.1,29.71,NW,322,2.0,5.0,37,0.00,,,0.00,VWS V14.01,2013-08-28 22:42:00,
2013-08-28 15:43:00,94.3,64.1,29.73,NE,51,6.0,9.0,37,0.00,,,0.00,VWS V15.00,2013-08-28 22:43:00,
2013-08-28 15:44:00,94.4,64.1,29.73,NNE,22,7.0,7.0,37,0.00,,,0.00,VWS V15.00,2013-08-28 22:44:00,
2013-08-28 15:45:00,95.6,64.4,29.71,NW,325,2.0,6.0,36,0.00,,,0.00,VWS V14.01,2013-08-28 22:45:00,
2013-08-28 15:46:00,94.6,64.3,29.73,NNW,328,6.0,7.0,37,0.00,,,0.00,VWS V15.00,2013-08-28 22:46:00,
2013-08-28 15:47:00,94.6,63.5,29.72,North,357,6.0,7.0,36,0.00,,,0.00,VWS V15.00,2013-08-28 22:47:00,
2013-08-28 15:48:00,95.1,64.0,29.71,NNE,18,7.0,7.0,36,0.00,,,0.00,VWS V14.01,2013-08-28 22:48:00,
2013-08-28 15:49:00,94.7,64.4,29.72,North,357,6.0,6.0,37,0.00,,,0.00,VWS V15.00,2013-08-28 22:49:00,
2013-08-28 15:50:00,94.6,64.3,29.71,NW,312,2.0,6.0,37,0.00,,,0.00,VWS V14.01,2013-08-28 22:50:00,
2013-08-28 15:51:00,94.6,63.5,29.72,NW,315,6.0,7.0,36,0.00,,,0.00,VWS V15.00,2013-08-28 22:51:00,
2013-08-28 15:52:00,94.4,63.4,29.72,NNW,340,5.0,10.0,36,0.00,,,0.00,VWS V15.00,2013-08-28 22:52:00,
2013-08-28 15:53:00,94.6,64.3,29.71,WNW,295,2.0,4.0,37,0.00,,,0.00,VWS V14.01,2013-08-28 22:53:00,
2013-08-28 15:54:00,94.2,64.0,29.72,NNW,335,5.0,6.0,37,0.00,,,0.00,VWS V15.00,2013-08-28 22:54:00,
2013-08-28 15:55:00,94.8,64.5,29.71,WNW,292,3.0,4.0,37,0.00,,,0.00,VWS V14.01,2013-08-28 22:55:00,
2013-08-28 15:56:00,94.3,64.1,29.72,NNW,335,5.0,7.0,37,0.00,,,0.00,VWS V15.00,2013-08-28 22:56:00,
2013-08-28 15:57:00,94.7,64.4,29.71,NNW,347,2.0,3.0,37,0.00,,,0.00,VWS V14.01,2013-08-28 22:57:00,
2013-08-28 15:58:00,94.5,64.2,29.72,NW,326,4.0,8.0,37,0.00,,,0.00,VWS V15.00,2013-08-28 22:58:00,
2013-08-28 15:59:00,94.5,64.2,29.72,West,274,3.0,6.0,37,0.00,,,0.00,VWS V15.00,2013-08-28 22:59:00,
2013-08-28 16:00:00,94.7,64.4,29.71,NW,307,7.0,9.0,37,0.00,,,0.00,VWS V14.01,2013-08-28 23:00:00,
2013-08-28 16:01:00,94.3,64.1,29.72,NNW,331,3.0,5.0,37,0.00,,,0.00,VWS V15.00,2013-08-28 23:01:00,
2013-08-28 16:02:00,94.3,64.1,29.72,NW,326,1.0,3.0,37,0.00,,,0.00,VWS V15.00,2013-08-28 23:02:00,
2013-08-28 16:03:00,94.6,64.3,29.71,NNW,347,4.0,4.0,37,0.00,,,0.00,VWS V14.01,2013-08-28 23:03:00,
2013-08-28 16:04:00,94.5,64.2,29.72,NNW,342,3.0,6.0,37,0.00,,,0.00,VWS V15.00,2013-08-28 23:04:00,
2013-08-28 16:05:00,94.2,64.0,29.71,NW,321,3.0,7.0,37,0.00,,,0.00,VWS V14.01,2013-08-28 23:05:00,
2013-08-28 16:06:00,94.2,64.0,29.71,WNW,290,3.0,7.0,37,0.00,,,0.00,VWS V14.01,2013-08-28 23:06:00,
2013-08-28 16:07:00,94.1,63.9,29.71,NNW,342,5.0,8.0,37,0.00,,,0.00,VWS V14.01,2013-08-28 23:07:00,
2013-08-28 16:08:00,94.7,63.6,29.72,North,6,7.0,9.0,36,0.00,,,0.00,VWS V15.00,2013-08-28 23:08:00,
2013-08-28 16:09:00,94.5,64.2,29.72,North,353,4.0,7.0,37,0.00,,,0.00,VWS V15.00,2013-08-28 23:09:00,
2013-08-28 16:10:00,93.6,63.4,29.71,SSW,210,3.0,4.0,37,0.00,,,0.00,VWS V14.01,2013-08-28 23:10:00,
2013-08-28 16:11:00,93.6,63.4,29.71,North,354,9.0,11.0,37,0.00,,,0.00,VWS V14.01,2013-08-28 23:11:00,
2013-08-28 16:12:00,94.5,64.2,29.72,North,1,2.0,4.0,37,0.00,,,0.00,VWS V15.00,2013-08-28 23:12:00,
2013-08-28 16:13:00,93.1,63.0,29.71,North,355,5.0,11.0,37,0.00,,,0.00,VWS V14.01,2013-08-28 23:13:00,
2013-08-28 16:14:00,93.0,62.9,29.71,NNW,336,8.0,8.0,37,0.00,,,0.00,VWS V14.01,2013-08-28 23:14:00,
2013-08-28 16:15:00,92.8,62.7,29.71,NW,322,4.0,10.0,37,0.00,,,0.00,VWS V14.01,2013-08-28 23:15:00,
2013-08-28 16:16:00,92.7,62.6,29.71,NNW,332,7.0,10.0,37,0.00,,,0.00,VWS V14.01,2013-08-28 23:16:00,
2013-08-28 16:17:00,95.4,64.2,29.72,NW,307,2.0,4.0,36,0.00,,,0.00,VWS V15.00,2013-08-28 23:17:00,
2013-08-28 16:18:00,95.4,64.2,29.72,NNW,336,1.0,5.0,36,0.00,,,0.00,VWS V15.00,2013-08-28 23:18:00,
2013-08-28 16:19:00,92.3,62.3,29.71,NNW,338,2.0,8.0,37,0.00,,,0.00,VWS V14.01,2013-08-28 23:19:00,
2013-08-28 16:20:00,92.3,62.3,29.71,North,356,9.0,9.0,37,0.00,,,0.00,VWS V14.01,2013-08-28 23:20:00,
2013-08-28 16:21:00,95.6,64.4,29.72,North,352,6.0,8.0,36,0.00,,,0.00,VWS V15.00,2013-08-28 23:21:00,
2013-08-28 16:22:00,95.5,64.3,29.72,NNW,347,4.0,7.0,36,0.00,,,0.00,VWS V15.00,2013-08-28 23:22:00,
2013-08-28 16:23:00,92.2,61.4,29.71,WSW,258,3.0,7.0,36,0.00,,,0.00,VWS V14.01,2013-08-28 23:23:00,
2013-08-28 16:24:00,95.0,64.7,29.72,NW,321,4.0,5.0,37,0.00,,,0.00,VWS V15.00,2013-08-28 23:24:00,
2013-08-28 16:25:00,92.4,62.4,29.71,NW,313,2.0,3.0,37,0.00,,,0.00,VWS V14.01,2013-08-28 23:25:00,
2013-08-28 16:26:00,95.0,64.7,29.72,NNW,343,3.0,4.0,37,0.00,,,0.00,VWS V15.00,2013-08-28 23:26:00,
2013-08-28 16:27:00,92.8,62.0,29.71,NW,321,3.0,4.0,36,0.00,,,0.00,VWS V14.01,2013-08-28 23:27:00,
2013-08-28 16:28:00,92.9,62.0,29.71,WNW,297,7.0,7.0,36,0.00,,,0.00,VWS V14.01,2013-08-28 23:28:00,
2013-08-28 16:29:00,94.9,64.6,29.72,West,263,2.0,4.0,37,0.00,,,0.00,VWS V15.00,2013-08-28 23:29:00,
2013-08-28 16:30:00,92.7,61.1,29.71,WSW,253,4.0,10.0,35,0.00,,,0.00,VWS V14.01,2013-08-28 23:30:00,
2013-08-28 16:31:00,92.6,61.0,29.71,NNW,342,1.0,9.0,35,0.00,,,0.00,VWS V14.01,2013-08-28 23:31:00,
2013-08-28 16:32:00,95.1,64.8,29.71,North,349,1.0,5.0,37,0.00,,,0.00,VWS V15.00,2013-08-28 23:32:00,
2013-08-28 16:33:00,92.4,60.8,29.71,NNW,336,7.0,9.0,35,0.00,,,0.00,VWS V14.01,2013-08-28 23:33:00,
2013-08-28 16:34:00,95.2,64.8,29.71,NNW,340,4.0,5.0,37,0.00,,,0.00,VWS V15.00,2013-08-28 23:34:00,
2013-08-28 16:35:00,92.2,59.8,29.71,NNW,347,6.0,9.0,34,0.00,,,0.00,VWS V14.01,2013-08-28 23:35:00,
2013-08-28 16:36:00,95.2,64.8,29.71,NW,305,3.0,5.0,37,0.00,,,0.00,VWS V15.00,2013-08-28 23:36:00,
2013-08-28 16:37:00,95.2,64.8,29.71,WNW,284,3.0,6.0,37,0.00,,,0.00,VWS V15.00,2013-08-28 23:37:00,
2013-08-28 16:38:00,92.2,59.8,29.71,North,6,5.0,6.0,34,0.00,,,0.00,VWS V14.01,2013-08-28 23:38:00,
2013-08-28 16:39:00,95.4,65.0,29.71,WSW,256,1.0,5.0,37,0.00,,,0.00,VWS V15.00,2013-08-28 23:39:00,
2013-08-28 16:40:00,92.5,60.9,29.71,NNW,335,7.0,8.0,35,0.00,,,0.00,VWS V14.01,2013-08-28 23:40:00,
2013-08-28 16:41:00,92.6,61.0,29.71,WNW,297,3.0,8.0,35,0.00,,,0.00,VWS V14.01,2013-08-28 23:41:00,
2013-08-28 16:42:00,92.5,60.9,29.71,WSW,242,2.0,6.0,35,0.00,,,0.00,VWS V14.01,2013-08-28 23:42:00,
2013-08-28 16:43:00,95.6,64.4,29.71,NW,325,2.0,6.0,36,0.00,,,0.00,VWS V15.00,2013-08-28 23:43:00,
2013-08-28 16:44:00,95.5,64.3,29.71,NNE,23,6.0,8.0,36,0.00,,,0.00,VWS V15.00,2013-08-28 23:44:00,
2013-08-28 16:45:00,92.4,60.0,29.71,NNE,13,10.0,10.0,34,0.00,,,0.00,VWS V14.01,2013-08-28 23:45:00,
2013-08-28 16:46:00,92.2,59.8,29.71,NW,321,3.0,4.0,34,0.00,,,0.00,VWS V14.01,2013-08-28 23:46:00,
2013-08-28 16:47:00,94.9,64.6,29.71,NW,322,5.0,7.0,37,0.00,,,0.00,VWS V15.00,2013-08-28 23:47:00,
2013-08-28 16:48:00,91.9,60.4,29.71,North,354,3.0,8.0,35,0.00,,,0.00,VWS V14.01,2013-08-28 23:48:00,
2013-08-28 16:49:00,94.5,64.2,29.71,West,263,2.0,6.0,37,0.00,,,0.00,VWS V15.00,2013-08-28 23:49:00,
2013-08-28 16:50:00,92.0,60.5,29.71,NNE,15,2.0,7.0,35,0.00,,,0.00,VWS V14.01,2013-08-28 23:50:00,
2013-08-28 16:51:00,92.2,60.6,29.71,NNW,329,2.0,5.0,35,0.00,,,0.00,VWS V14.01,2013-08-28 23:51:00,
2013-08-28 16:52:00,94.7,64.4,29.71,NW,316,4.0,5.0,37,0.00,,,0.00,VWS V15.00,2013-08-28 23:52:00,
2013-08-28 16:53:00,92.1,60.5,29.71,NNW,340,1.0,6.0,35,0.00,,,0.00,VWS V14.01,2013-08-28 23:53:00,
2013-08-28 16:54:00,92.0,60.5,29.71,WNW,282,2.0,7.0,35,0.00,,,0.00,VWS V14.01,2013-08-28 23:54:00,
2013-08-28 16:55:00,94.7,64.4,29.71,NNW,347,2.0,3.0,37,0.00,,,0.00,VWS V15.00,2013-08-28 23:55:00,
2013-08-28 16:56:00,94.7,64.4,29.71,NW,326,3.0,5.0,37,0.00,,,0.00,VWS V15.00,2013-08-28 23:56:00,
2013-08-28 16:57:00,94.7,64.4,29.71,WNW,302,2.0,4.0,37,0.00,,,0.00,VWS V15.00,2013-08-28 23:57:00,
2013-08-28 16:58:00,92.0,60.5,29.71,North,1,2.0,7.0,35,0.00,,,0.00,VWS V14.01,2013-08-28 23:58:00,
2013-08-28 16:59:00,92.0,60.5,29.71,NNW,336,4.0,9.0,35,0.00,,,0.00,VWS V14.01,2013-08-28 23:59:00,
2013-08-28 17:00:00,91.8,60.3,29.71,NW,321,4.0,7.0,35,0.00,,,0.00,VWS V14.01,2013-08-29 00:00:00,
2013-08-28 17:01:00,91.6,60.1,29.71,North,360,6.0,7.0,35,0.00,,,0.00,VWS V14.01,2013-08-29 00:01:00,
2013-08-28 17:02:00,94.6,63.5,29.71,North,349,10.0,10.0,36,0.00,,,0.00,VWS V15.00,2013-08-29 00:02:00,
2013-08-28 17:03:00,91.6,60.9,29.71,NNW,340,4.0,6.0,36,0.00,,,0.00,VWS V14.01,2013-08-29 00:03:00,
2013-08-28 17:04:00,91.5,60.8,29.71,NW,325,4.0,4.0,36,0.00,,,0.00,VWS V14.01,2013-08-29 00:04:00,
2013-08-28 17:05:00,94.1,63.9,29.71,NNW,342,5.0,8.0,37,0.00,,,0.00,VWS V15.00,2013-08-29 00:05:00,
2013-08-28 17:06:00,91.5,60.8,29.71,NW,323,1.0,3.0,36,0.00,,,0.00,VWS V14.01,2013-08-29 00:06:00,
2013-08-28 17:07:00,93.8,63.6,29.71,NNE,17,3.0,10.0,37,0.00,,,0.00,VWS V15.00,2013-08-29 00:07:00,
2013-08-28 17:08:00,93.6,63.4,29.71,SSW,210,3.0,4.0,37,0.00,,,0.00,VWS V15.00,2013-08-29 00:08:00,
2013-08-28 17:09:00,91.7,61.0,29.71,NW,319,1.0,4.0,36,0.00,,,0.00,VWS V14.01,2013-08-29 00:09:00,
2013-08-28 17:10:00,91.7,61.0,29.71,WNW,297,1.0,4.0,36,0.00,,,0.00,VWS V14.01,2013-08-29 00:10:00,
2013-08-28 17:11:00,91.6,60.9,29.72,NW,325,6.0,8.0,36,0.00,,,0.00,VWS V14.01,2013-08-29 00:11:00,
2013-08-28 17:12:00,93.0,62.9,29.71,NNW,336,8.0,8.0,37,0.00,,,0.00,VWS V15.00,2013-08-29 00:12:00,
2013-08-28 17:13:00,92.8,62.7,29.71,NW,322,4.0,10.0,37,0.00,,,0.00,VWS V15.00,2013-08-29 00:13:00,
2013-08-28 17:14:00,92.7,62.6,29.71,NNW,332,7.0,10.0,37,0.00,,,0.00,VWS V15.00,2013-08-29 00:14:00,
2013-08-28 17:15:00,91.7,61.8,29.71,NW,314,4.0,4.0,37,0.00,,,0.00,VWS V14.01,2013-08-29 00:15:00,
2013-08-28 17:16:00,91.7,61.8,29.72,NNW,329,4.0,6.0,37,0.00,,,0.00,VWS V14.01,2013-08-29 00:16:00,
2013-08-28 17:17:00,92.3,62.3,29.71,NNW,338,2.0,8.0,37,0.00,,,0.00,VWS V15.00,2013-08-29 00:17:00,
2013-08-28 17:18:00,91.5,62.3,29.71,NNW,333,7.0,8.0,38,0.00,,,0.00,VWS V14.01,2013-08-29 00:18:00,
2013-08-28 17:19:00,92.3,62.3,29.71,NW,312,7.0,9.0,37,0.00,,,0.00,VWS V15.00,2013-08-29 00:19:00,
2013-08-28 17:20:00,91.3,62.2,29.71,NNW,332,1.0,5.0,38,0.00,,,0.00,VWS V14.01,2013-08-29 00:20:00,
2013-08-28 17:21:00,91.3,62.2,29.71,NNW,340,1.0,2.0,38,0.00,,,0.00,VWS V14.01,2013-08-29 00:21:00,
2013-08-28 17:22:00,92.3,62.3,29.71,NNE,19,2.0,6.0,37,0.00,,,0.00,VWS V15.00,2013-08-29 00:22:00,
2013-08-28 17:23:00,92.4,62.4,29.71,NW,313,2.0,3.0,37,0.00,,,0.00,VWS V15.00,2013-08-29 00:23:00,
2013-08-28 17:25:00,91.2,62.1,29.71,North,4,4.0,5.0,38,0.00,,,0.00,VWS V14.01,2013-08-29 00:25:00,
2013-08-28 17:26:00,91.1,62.0,29.71,WNW,285,2.0,6.0,38,0.00,,,0.00,VWS V14.01,2013-08-29 00:26:00,
2013-08-28 17:27:00,92.9,62.0,29.71,NNW,329,4.0,7.0,36,0.00,,,0.00,VWS V15.00,2013-08-29 00:27:00,
2013-08-28 17:28:00,91.2,62.8,29.71,WNW,282,1.0,2.0,39,0.00,,,0.00,VWS V14.01,2013-08-29 00:28:00,
2013-08-28 17:29:00,91.3,62.9,29.71,North,353,3.0,7.0,39,0.00,,,0.00,VWS V14.01,2013-08-29 00:29:00,
2013-08-28 17:30:00,91.3,62.9,29.71,West,273,1.0,4.0,39,0.00,,,0.00,VWS V14.01,2013-08-29 00:30:00,
2013-08-28 17:31:00,92.4,60.8,29.71,NNW,336,7.0,9.0,35,0.00,,,0.00,VWS V15.00,2013-08-29 00:31:00,
2013-08-28 17:32:00,92.4,60.8,29.71,NW,314,7.0,8.0,35,0.00,,,0.00,VWS V15.00,2013-08-29 00:32:00,
2013-08-28 17:33:00,92.2,59.8,29.71,NNW,347,6.0,9.0,34,0.00,,,0.00,VWS V15.00,2013-08-29 00:33:00,
2013-08-28 17:34:00,91.5,62.3,29.72,NNW,345,3.0,4.0,38,0.00,,,0.00,VWS V14.01,2013-08-29 00:34:00,
2013-08-28 17:35:00,91.4,63.0,29.72,NW,324,3.0,5.0,39,0.00,,,0.00,VWS V14.01,2013-08-29 00:35:00,
2013-08-28 17:36:00,91.3,62.2,29.72,NNE,16,6.0,6.0,38,0.00,,,0.00,VWS V14.01,2013-08-29 00:36:00,
2013-08-28 17:37:00,92.3,60.7,29.71,WNW,283,3.0,5.0,35,0.00,,,0.00,VWS V15.00,2013-08-29 00:37:00,
2013-08-28 17:38:00,91.0,62.6,29.72,NNW,336,2.0,3.0,39,0.00,,,0.00,VWS V14.01,2013-08-29 00:38:00,
2013-08-28 17:39:00,92.6,61.0,29.71,WNW,297,3.0,8.0,35,0.00,,,0.00,VWS V15.00,2013-08-29 00:39:00,
2013-08-28 17:40:00,90.9,62.5,29.72,NNE,20,4.0,6.0,39,0.00,,,0.00,VWS V14.01,2013-08-29 00:40:00,
2013-08-28 17:41:00,92.5,60.9,29.71,NNW,341,5.0,6.0,35,0.00,,,0.00,VWS V15.00,2013-08-29 00:41:00,
2013-08-28 17:42:00,92.5,60.1,29.71,NNW,347,4.0,8.0,34,0.00,,,0.00,VWS V15.00,2013-08-29 00:42:00,
2013-08-28 17:43:00,90.6,62.3,29.72,WNW,297,3.0,4.0,39,0.00,,,0.00,VWS V14.01,2013-08-29 00:43:00,
2013-08-28 17:44:00,90.7,63.1,29.72,West,263,2.0,3.0,40,0.00,,,0.00,VWS V14.01,2013-08-29 00:44:00,
2013-08-28 17:45:00,90.9,63.3,29.72,NW,309,2.0,2.0,40,0.00,,,0.00,VWS V14.01,2013-08-29 00:45:00,
2013-08-28 17:46:00,91.1,63.4,29.72,NW,321,2.0,4.0,40,0.00,,,0.00,VWS V14.01,2013-08-29 00:46:00,
2013-08-28 17:47:00,91.9,60.4,29.71,NNW,341,1.0,3.0,35,0.00,,,0.00,VWS V15.00,2013-08-29 00:47:00,
2013-08-28 17:48:00,92.0,60.5,29.71,NNE,15,2.0,7.0,35,0.00,,,0.00,VWS V15.00,2013-08-29 00:48:00,
2013-08-28 17:49:00,91.1,62.7,29.72,NNW,330,2.0,3.0,39,0.00,,,0.00,VWS V14.01,2013-08-29 00:49:00,
2013-08-28 17:50:00,91.1,62.7,29.72,NW,326,2.0,2.0,39,0.00,,,0.00,VWS V14.01,2013-08-29 00:50:00,
2013-08-28 17:51:00,92.1,60.5,29.71,NNW,340,1.0,6.0,35,0.00,,,0.00,VWS V15.00,2013-08-29 00:51:00,
2013-08-28 17:52:00,90.9,62.5,29.72,WSW,256,1.0,2.0,39,0.00,,,0.00,VWS V14.01,2013-08-29 00:52:00,
2013-08-28 17:53:00,91.0,63.3,29.72,West,270,3.0,3.0,40,0.00,,,0.00,VWS V14.01,2013-08-29 00:53:00,
2013-08-28 17:54:00,91.8,60.3,29.71,NNW,338,3.0,4.0,35,0.00,,,0.00,VWS V15.00,2013-08-29 00:54:00,
2013-08-28 17:55:00,91.9,60.4,29.71,SSE,165,1.0,4.0,35,0.00,,,0.00,VWS V15.00,2013-08-29 00:55:00,
2013-08-28 17:56:00,91.2,62.8,29.72,West,280,2.0,7.0,39,0.00,,,0.00,VWS V14.01,2013-08-29 00:56:00,
2013-08-28 17:57:00,92.0,60.5,29.71,NNW,336,4.0,9.0,35,0.00,,,0.00,VWS V15.00,2013-08-29 00:57:00,
2013-08-28 17:58:00,91.3,63.6,29.72,WNW,293,3.0,6.0,40,0.00,,,0.00,VWS V14.01,2013-08-29 00:58:00,
2013-08-28 17:59:00,91.4,63.7,29.72,West,269,1.0,4.0,40,0.00,,,0.00,VWS V14.01,2013-08-29 00:59:00,
2013-08-28 18:00:00,91.6,60.9,29.71,NNW,340,3.0,6.0,36,0.00,,,0.00,VWS V15.00,2013-08-29 01:00:00,
2013-08-28 18:01:00,91.6,60.9,29.71,NNW,340,4.0,6.0,36,0.00,,,0.00,VWS V15.00,2013-08-29 01:01:00,
2013-08-28 18:02:00,91.5,60.8,29.71,NW,325,4.0,4.0,36,0.00,,,0.00,VWS V15.00,2013-08-29 01:02:00,
2013-08-28 18:03:00,91.2,63.5,29.72,West,280,2.0,4.0,40,0.00,,,0.00,VWS V14.01,2013-08-29 01:03:00,
2013-08-28 18:04:00,91.5,60.8,29.71,NW,323,1.0,3.0,36,0.00,,,0.00,VWS V15.00,2013-08-29 01:04:00,
2013-08-28 18:05:00,91.2,63.5,29.72,WSW,239,3.0,4.0,40,0.00,,,0.00,VWS V14.01,2013-08-29 01:05:00,
2013-08-28 18:06:00,91.1,63.4,29.72,WSW,250,2.0,4.0,40,0.00,,,0.00,VWS V14.01,2013-08-29 01:06:00,
2013-08-28 18:07:00,91.7,61.0,29.71,NW,319,1.0,4.0,36,0.00,,,0.00,VWS V15.00,2013-08-29 01:07:00,
2013-08-28 18:08:00,91.7,61.0,29.71,WNW,297,1.0,4.0,36,0.00,,,0.00,VWS V15.00,2013-08-29 01:08:00,
2013-08-28 18:09:00,91.2,63.5,29.72,West,276,2.0,4.0,40,0.00,,,0.00,VWS V14.01,2013-08-29 01:09:00,
2013-08-28 18:10:00,91.4,60.7,29.72,WNW,284,1.0,8.0,36,0.00,,,0.00,VWS V15.00,2013-08-29 01:10:00,
2013-08-28 18:11:00,91.2,63.5,29.72,WSW,245,3.0,3.0,40,0.00,,,0.00,VWS V14.01,2013-08-29 01:11:00,
2013-08-28 18:12:00,91.5,61.6,29.71,WNW,285,2.0,5.0,37,0.00,,,0.00,VWS V15.00,2013-08-29 01:12:00,
2013-08-28 18:13:00,91.7,61.8,29.71,NW,314,4.0,4.0,37,0.00,,,0.00,VWS V15.00,2013-08-29 01:13:00,
2013-08-28 18:14:00,91.3,63.6,29.72,WSW,239,4.0,4.0,40,0.00,,,0.00,VWS V14.01,2013-08-29 01:14:00,
2013-08-28 18:15:00,91.6,61.7,29.72,WNW,301,2.0,4.0,37,0.00,,,0.00,VWS V15.00,2013-08-29 01:15:00,
2013-08-28 18:16:00,91.1,63.4,29.72,NNW,345,1.0,2.0,40,0.00,,,0.00,VWS V14.01,2013-08-29 01:16:00,
2013-08-28 18:17:00,91.1,63.4,29.72,North,359,1.0,3.0,40,0.00,,,0.00,VWS V14.01,2013-08-29 01:17:00,
2013-08-28 18:18:00,91.3,62.2,29.71,NNW,332,1.0,5.0,38,0.00,,,0.00,VWS V15.00,2013-08-29 01:18:00,
2013-08-28 18:19:00,91.3,62.2,29.71,NNW,340,1.0,2.0,38,0.00,,,0.00,VWS V15.00,2013-08-29 01:19:00,
2013-08-28 18:20:00,91.4,62.2,29.71,North,359,4.0,6.0,38,0.00,,,0.00,VWS V15.00,2013-08-29 01:20:00,
2013-08-28 18:21:00,91.1,64.1,29.72,NW,312,5.0,5.0,41,0.00,,,0.00,VWS V14.01,2013-08-29 01:21:00,
2013-08-28 18:22:00,91.1,64.1,29.72,West,281,3.0,5.0,41,0.00,,,0.00,VWS V14.01,2013-08-29 01:22:00,
2013-08-28 18:24:00,90.8,63.9,29.72,West,277,3.0,7.0,41,0.00,,,0.00,VWS V14.01,2013-08-29 01:24:00,
2013-08-28 18:25:00,90.6,63.7,29.72,West,277,6.0,7.0,41,0.00,,,0.00,VWS V14.01,2013-08-29 01:25:00,
2013-08-28 18:26:00,90.3,64.1,29.72,West,267,1.0,6.0,42,0.00,,,0.00,VWS V14.01,2013-08-29 01:26:00,
2013-08-28 18:27:00,90.2,64.0,29.72,West,267,3.0,4.0,42,0.00,,,0.00,VWS V14.01,2013-08-29 01:27:00,
2013-08-28 18:28:00,90.1,63.9,29.72,NNW,345,1.0,3.0,42,0.00,,,0.00,VWS V14.01,2013-08-29 01:28:00,
2013-08-28 18:29:00,90.1,63.9,29.72,WNW,292,1.0,3.0,43,0.00,,,0.00,VWS V14.01,2013-08-29 01:29:00,
2013-08-28 18:30:00,91.5,63.1,29.72,West,265,2.0,3.0,39,0.00,,,0.00,VWS V15.00,2013-08-29 01:30:00,
2013-08-28 18:31:00,90.1,63.9,29.72,NW,305,2.0,4.0,42,0.00,,,0.00,VWS V14.01,2013-08-29 01:31:00,
2013-08-28 18:32:00,90.1,64.6,29.72,West,274,1.0,3.0,43,0.00,,,0.00,VWS V14.01,2013-08-29 01:32:00,
2013-08-28 18:33:00,91.4,63.0,29.72,NW,324,3.0,5.0,39,0.00,,,0.00,VWS V15.00,2013-08-29 01:33:00,
2013-08-28 18:34:00,90.1,64.6,29.72,WSW,249,1.0,5.0,43,0.00,,,0.00,VWS V14.01,2013-08-29 01:34:00,
2013-08-28 18:35:00,91.1,62.0,29.72,NW,316,2.0,6.0,38,0.00,,,0.00,VWS V15.00,2013-08-29 01:35:00,
2013-08-28 18:36:00,91.0,62.6,29.72,NNW,336,2.0,3.0,39,0.00,,,0.00,VWS V15.00,2013-08-29 01:36:00,
2013-08-28 18:37:00,90.1,64.6,29.71,WNW,282,1.0,2.0,43,0.00,,,0.00,VWS V14.01,2013-08-29 01:37:00,
2013-08-28 18:38:00,90.9,62.5,29.72,NNE,20,4.0,6.0,39,0.00,,,0.00,VWS V15.00,2013-08-29 01:38:00,
2013-08-28 18:39:00,90.0,64.5,29.71,WSW,255,3.0,7.0,43,0.00,,,0.00,VWS V14.01,2013-08-29 01:39:00,
2013-08-28 18:40:00,90.0,64.5,29.71,WSW,252,1.0,3.0,43,0.00,,,0.00,VWS V14.01,2013-08-29 01:40:00,
2013-08-28 18:41:00,90.6,62.3,29.72,WNW,297,3.0,4.0,39,0.00,,,0.00,VWS V15.00,2013-08-29 01:41:00,
2013-08-28 18:42:00,90.7,63.1,29.72,West,263,2.0,3.0,40,0.00,,,0.00,VWS V15.00,2013-08-29 01:42:00,
2013-08-28 18:43:00,90.9,63.3,29.72,NW,309,2.0,2.0,40,0.00,,,0.00,VWS V15.00,2013-08-29 01:43:00,
2013-08-28 18:44:00,91.1,63.4,29.72,NW,321,2.0,4.0,40,0.00,,,0.00,VWS V15.00,2013-08-29 01:44:00,
2013-08-28 18:45:00,89.9,64.4,29.72,West,276,1.0,3.0,43,0.00,,,0.00,VWS V14.01,2013-08-29 01:45:00,
2013-08-28 18:46:00,91.1,62.7,29.72,WNW,302,2.0,4.0,39,0.00,,,0.00,VWS V15.00,2013-08-29 01:46:00,
2013-08-28 18:47:00,89.8,64.3,29.72,NW,307,3.0,5.0,43,0.00,,,0.00,VWS V14.01,2013-08-29 01:47:00,
2013-08-28 18:48:00,89.6,64.2,29.72,WSW,245,3.0,4.0,43,0.00,,,0.00,VWS V14.01,2013-08-29 01:48:00,
2013-08-28 18:49:00,89.5,64.7,29.72,WSW,255,5.0,5.0,44,0.00,,,0.00,VWS V14.01,2013-08-29 01:49:00,
2013-08-28 18:50:00,89.3,64.6,29.72,WSW,255,2.0,6.0,44,0.00,,,0.00,VWS V14.01,2013-08-29 01:50:00,
2013-08-28 18:51:00,91.0,63.3,29.72,West,270,3.0,3.0,40,0.00,,,0.00,VWS V15.00,2013-08-29 01:51:00,
2013-08-28 18:52:00,89.2,64.5,29.72,WNW,299,1.0,3.0,44,0.00,,,0.00,VWS V14.01,2013-08-29 01:52:00,
2013-08-28 18:53:00,89.1,64.4,29.72,WNW,302,1.0,1.0,44,0.00,,,0.00,VWS V14.01,2013-08-29 01:53:00,
2013-08-28 18:54:00,91.2,62.8,29.72,West,280,2.0,7.0,39,0.00,,,0.00,VWS V15.00,2013-08-29 01:54:00,
2013-08-28 18:55:00,89.1,64.4,29.72,NW,326,1.0,1.0,44,0.00,,,0.00,VWS V14.01,2013-08-29 01:55:00,
2013-08-28 18:56:00,91.3,63.6,29.72,WNW,293,3.0,6.0,40,0.00,,,0.00,VWS V15.00,2013-08-29 01:56:00,
2013-08-28 18:57:00,88.9,64.2,29.72,West,280,1.0,3.0,44,0.00,,,0.00,VWS V14.01,2013-08-29 01:57:00,
2013-08-28 18:58:00,91.3,63.6,29.72,WSW,238,5.0,5.0,40,0.00,,,0.00,VWS V15.00,2013-08-29 01:58:00,
2013-08-28 18:59:00,88.5,63.8,29.72,WSW,255,1.0,3.0,44,0.00,,,0.00,VWS V14.01,2013-08-29 01:59:00,
2013-08-28 19:00:00,91.2,63.5,29.72,NW,312,1.0,4.0,40,0.00,,,0.00,VWS V15.00,2013-08-29 02:00:00,
2013-08-28 19:01:00,88.2,63.6,29.72,NE,40,1.0,2.0,44,0.00,,,0.00,VWS V14.01,2013-08-29 02:01:00,
2013-08-28 19:02:00,87.9,63.3,29.72,NW,321,1.0,2.0,44,0.00,,,0.00,VWS V14.01,2013-08-29 02:02:00,
2013-08-28 19:03:00,91.2,63.5,29.72,WSW,239,3.0,4.0,40,0.00,,,0.00,VWS V15.00,2013-08-29 02:03:00,
2013-08-28 19:04:00,87.6,63.7,29.72,NW,321,0.0,1.0,45,0.00,,,0.00,VWS V14.01,2013-08-29 02:04:00,
2013-08-28 19:05:00,91.2,63.5,29.72,NW,313,2.0,2.0,40,0.00,,,0.00,VWS V15.00,2013-08-29 02:05:00,
2013-08-28 19:06:00,87.3,63.4,29.72,West,262,1.0,1.0,45,0.00,,,0.00,VWS V14.01,2013-08-29 02:06:00,
2013-08-28 19:07:00,87.2,63.3,29.72,WSW,253,1.0,1.0,45,0.00,,,0.00,VWS V14.01,2013-08-29 02:07:00,
2013-08-28 19:08:00,91.2,63.5,29.72,NE,38,0.0,3.0,40,0.00,,,0.00,VWS V15.00,2013-08-29 02:08:00,
2013-08-28 19:09:00,91.2,63.5,29.72,WSW,245,3.0,3.0,40,0.00,,,0.00,VWS V15.00,2013-08-29 02:09:00,
2013-08-28 19:10:00,86.8,62.9,29.72,West,276,1.0,2.0,45,0.00,,,0.00,VWS V14.01,2013-08-29 02:10:00,
2013-08-28 19:11:00,91.3,63.6,29.72,West,277,1.0,5.0,40,0.00,,,0.00,VWS V15.00,2013-08-29 02:11:00,
2013-08-28 19:12:00,86.6,62.8,29.72,WSW,249,4.0,4.0,45,0.00,,,0.00,VWS V14.01,2013-08-29 02:12:00,
2013-08-28 19:13:00,91.2,63.5,29.72,NNW,333,1.0,6.0,40,0.00,,,0.00,VWS V15.00,2013-08-29 02:13:00,
2013-08-28 19:14:00,86.3,62.5,29.72,West,270,2.0,4.0,45,0.00,,,0.00,VWS V14.01,2013-08-29 02:14:00,
2013-08-28 19:15:00,86.2,62.4,29.72,West,276,2.0,3.0,45,0.00,,,0.00,VWS V14.01,2013-08-29 02:15:00,
2013-08-28 19:16:00,91.1,64.1,29.72,West,278,1.0,1.0,41,0.00,,,0.00,VWS V15.00,2013-08-29 02:16:00,
2013-08-28 19:17:00,86.0,62.8,29.72,West,278,1.0,2.0,46,0.00,,,0.00,VWS V14.01,2013-08-29 02:17:00,
2013-08-28 19:18:00,85.9,62.7,29.72,West,281,2.0,3.0,46,0.00,,,0.00,VWS V14.01,2013-08-29 02:18:00,
2013-08-28 19:19:00,85.8,62.0,29.73,WNW,284,1.0,2.0,45,0.00,,,0.00,VWS V14.01,2013-08-29 02:19:00,
2013-08-28 19:20:00,91.1,64.1,29.72,WSW,252,2.0,5.0,41,0.00,,,0.00,VWS V15.00,2013-08-29 02:20:00,
2013-08-28 19:21:00,90.9,64.0,29.72,WSW,249,7.0,7.0,41,0.00,,,0.00,VWS V15.00,2013-08-29 02:21:00,
2013-08-28 19:22:00,85.6,61.8,29.73,West,266,1.0,2.0,45,0.00,,,0.00,VWS V14.01,2013-08-29 02:22:00,
2013-08-28 19:23:00,90.6,63.7,29.72,West,277,6.0,7.0,41,0.00,,,0.00,VWS V15.00,2013-08-29 02:23:00,
2013-08-28 19:24:00,85.4,61.7,29.73,WNW,284,3.0,3.0,45,0.00,,,0.00,VWS V14.01,2013-08-29 02:24:00,
2013-08-28 19:25:00,90.2,64.0,29.72,West,267,3.0,4.0,42,0.00,,,0.00,VWS V15.00,2013-08-29 02:25:00,
2013-08-28 19:26:00,90.1,63.9,29.72,NNW,345,1.0,3.0,42,0.00,,,0.00,VWS V15.00,2013-08-29 02:26:00,
2013-08-28 19:27:00,90.1,63.9,29.72,WNW,292,1.0,3.0,43,0.00,,,0.00,VWS V15.00,2013-08-29 02:27:00,
2013-08-28 19:28:00,85.1,61.4,29.73,WSW,243,1.0,2.0,45,0.00,,,0.00,VWS V14.01,2013-08-29 02:28:00,
2013-08-28 19:29:00,90.1,63.9,29.72,NW,305,2.0,4.0,42,0.00,,,0.00,VWS V15.00,2013-08-29 02:29:00,
2013-08-28 19:30:00,85.0,61.3,29.73,WSW,250,2.0,2.0,45,0.00,,,0.00,VWS V14.01,2013-08-29 02:30:00,
2013-08-28 19:32:00,84.8,61.1,29.73,WSW,243,1.0,2.0,45,0.00,,,0.00,VWS V14.01,2013-08-29 02:32:00,
2013-08-28 19:33:00,84.8,61.1,29.73,West,278,1.0,2.0,45,0.00,,,0.00,VWS V14.01,2013-08-29 02:33:00,
2013-08-28 19:34:00,90.1,64.6,29.72,WNW,293,1.0,3.0,43,0.00,,,0.00,VWS V15.00,2013-08-29 02:34:00,
2013-08-28 19:35:00,84.7,61.0,29.73,West,279,1.0,2.0,45,0.00,,,0.00,VWS V14.01,2013-08-29 02:35:00,
2013-08-28 19:36:00,90.1,64.6,29.71,West,259,7.0,7.0,43,0.00,,,0.00,VWS V15.00,2013-08-29 02:36:00,
2013-08-28 19:37:00,90.0,64.5,29.71,WSW,255,3.0,7.0,43,0.00,,,0.00,VWS V15.00,2013-08-29 02:37:00,
2013-08-28 19:38:00,90.0,64.5,29.71,WSW,252,1.0,3.0,43,0.00,,,0.00,VWS V15.00,2013-08-29 02:38:00,
2013-08-28 19:39:00,84.4,60.8,29.73,West,263,1.0,2.0,45,0.00,,,0.00,VWS V14.01,2013-08-29 02:39:00,
2013-08-28 19:40:00,84.3,61.3,29.73,NW,304,1.0,1.0,46,0.00,,,0.00,VWS V14.01,2013-08-29 02:40:00,
2013-08-28 19:41:00,84.2,61.2,29.73,NW,316,3.0,3.0,46,0.00,,,0.00,VWS V14.01,2013-08-29 02:41:00,
2013-08-28 19:42:00,90.0,64.5,29.72,WNW,298,2.0,3.0,43,0.00,,,0.00,VWS V15.00,2013-08-29 02:42:00,
2013-08-28 19:43:00,89.9,64.4,29.72,West,276,1.0,3.0,43,0.00,,,0.00,VWS V15.00,2013-08-29 02:43:00,
2013-08-28 19:44:00,83.9,60.9,29.74,North,354,1.0,2.0,46,0.00,,,0.00,VWS V14.01,2013-08-29 02:44:00,
2013-08-28 19:45:00,83.8,60.8,29.74,NW,321,2.0,4.0,46,0.00,,,0.00,VWS V14.01,2013-08-29 02:45:00,
2013-08-28 19:46:00,89.6,64.2,29.72,WSW,245,3.0,4.0,43,0.00,,,0.00,VWS V15.00,2013-08-29 02:46:00,
2013-08-28 19:47:00,83.6,60.7,29.74,North,356,0.0,3.0,46,0.00,,,0.00,VWS V14.01,2013-08-29 02:47:00,
2013-08-28 19:48:00,89.3,64.6,29.72,WSW,255,2.0,6.0,44,0.00,,,0.00,VWS V15.00,2013-08-29 02:48:00,
2013-08-28 19:49:00,83.4,60.5,29.74,WNW,287,1.0,2.0,46,0.00,,,0.00,VWS V14.01,2013-08-29 02:49:00,
2013-08-28 19:50:00,83.3,60.4,29.74,WNW,286,1.0,1.0,46,0.00,,,0.00,VWS V14.01,2013-08-29 02:50:00,
2013-08-28 19:51:00,89.1,64.4,29.72,WNW,302,1.0,1.0,44,0.00,,,0.00,VWS V15.00,2013-08-29 02:51:00,
2013-08-28 19:52:00,83.2,60.3,29.74,North,6,0.0,2.0,46,0.00,,,0.00,VWS V14.01,2013-08-29 02:52:00,
2013-08-28 19:53:00,89.1,64.4,29.72,NW,326,1.0,1.0,44,0.00,,,0.00,VWS V15.00,2013-08-29 02:53:00,
2013-08-28 19:54:00,89.0,64.3,29.72,West,274,0.0,3.0,44,0.00,,,0.00,VWS V15.00,2013-08-29 02:54:00,
2013-08-28 19:55:00,82.9,60.6,29.74,WNW,283,0.0,0.0,47,0.00,,,0.00,VWS V14.01,2013-08-29 02:55:00,
2013-08-28 19:56:00,88.7,64.0,29.72,WSW,258,2.0,3.0,44,0.00,,,0.00,VWS V15.00,2013-08-29 02:56:00,
2013-08-28 19:57:00,82.8,60.5,29.74,WNW,284,0.0,1.0,47,0.00,,,0.00,VWS V14.01,2013-08-29 02:57:00,
2013-08-28 19:58:00,88.3,63.7,29.72,NW,320,2.0,2.0,44,0.00,,,0.00,VWS V15.00,2013-08-29 02:58:00,
2013-08-28 19:59:00,88.2,63.6,29.72,NE,40,1.0,2.0,44,0.00,,,0.00,VWS V15.00,2013-08-29 02:59:00,
2013-08-28 20:00:00,82.6,59.8,29.74,NE,34,1.0,1.0,46,0.00,,,0.00,VWS V14.01,2013-08-29 03:00:00,
2013-08-28 20:01:00,82.6,59.8,29.74,NNE,18,1.0,1.0,46,0.00,,,0.00,VWS V14.01,2013-08-29 03:01:00,
2013-08-28 20:02:00,82.5,59.7,29.74,NNE,18,0.0,1.0,46,0.00,,,0.00,VWS V14.01,2013-08-29 03:02:00,
2013-08-28 20:03:00,87.4,63.5,29.72,West,260,0.0,1.0,45,0.00,,,0.00,VWS V15.00,2013-08-29 03:03:00,
2013-08-28 20:04:00,82.4,59.0,29.74,WSW,248,1.0,1.0,45,0.00,,,0.00,VWS V14.01,2013-08-29 03:04:00,
2013-08-28 20:05:00,87.2,63.3,29.72,WNW,297,1.0,1.0,45,0.00,,,0.00,VWS V15.00,2013-08-29 03:05:00,
2013-08-28 20:06:00,82.3,58.9,29.74,NW,326,1.0,1.0,45,0.00,,,0.00,VWS V14.01,2013-08-29 03:06:00,
2013-08-28 20:07:00,86.9,63.0,29.72,West,264,1.0,2.0,45,0.00,,,0.00,VWS V15.00,2013-08-29 03:07:00,
2013-08-28 20:08:00,86.8,62.9,29.72,West,276,1.0,2.0,45,0.00,,,0.00,VWS V15.00,2013-08-29 03:08:00,
2013-08-28 20:09:00,86.7,62.8,29.72,West,270,2.0,2.0,45,0.00,,,0.00,VWS V15.00,2013-08-29 03:09:00,
2013-08-28 20:10:00,82.2,58.1,29.75,NNW,337,1.0,1.0,44,0.00,,,0.00,VWS V14.01,2013-08-29 03:10:00,
2013-08-28 20:11:00,86.5,62.7,29.72,WNW,288,2.0,4.0,45,0.00,,,0.00,VWS V15.00,2013-08-29 03:11:00,
2013-08-28 20:12:00,82.1,58.0,29.75,NW,311,0.0,1.0,44,0.00,,,0.00,VWS V14.01,2013-08-29 03:12:00,
2013-08-28 20:13:00,82.1,58.0,29.75,NW,315,1.0,2.0,44,0.00,,,0.00,VWS V14.01,2013-08-29 03:13:00,
2013-08-28 20:14:00,82.1,58.0,29.75,West,274,1.0,1.0,44,0.00,,,0.00,VWS V14.01,2013-08-29 03:14:00,
2013-08-28 20:15:00,86.0,62.8,29.72,West,278,1.0,2.0,46,0.00,,,0.00,VWS V15.00,2013-08-29 03:15:00,
2013-08-28 20:16:00,85.9,62.7,29.72,West,281,2.0,3.0,46,0.00,,,0.00,VWS V15.00,2013-08-29 03:16:00,
2013-08-28 20:17:00,85.8,62.0,29.73,WNW,284,1.0,2.0,45,0.00,,,0.00,VWS V15.00,2013-08-29 03:17:00,
2013-08-28 20:18:00,81.9,57.9,29.75,WNW,297,0.0,1.0,44,0.00,,,0.00,VWS V14.01,2013-08-29 03:18:00,
2013-08-28 20:19:00,81.9,57.9,29.75,WNW,296,0.0,0.0,44,0.00,,,0.00,VWS V14.01,2013-08-29 03:19:00,
2013-08-28 20:20:00,81.9,58.5,29.75,WNW,297,0.0,1.0,45,0.00,,,0.00,VWS V14.01,2013-08-29 03:20:00,
2013-08-28 20:21:00,85.5,61.8,29.73,WSW,255,1.0,3.0,45,0.00,,,0.00,VWS V15.00,2013-08-29 03:21:00,
2013-08-28 20:22:00,81.8,58.4,29.75,WNW,285,1.0,1.0,45,0.00,,,0.00,VWS V14.01,2013-08-29 03:22:00,
2013-08-28 20:23:00,85.4,61.7,29.73,West,259,1.0,3.0,45,0.00,,,0.00,VWS V15.00,2013-08-29 03:23:00,
2013-08-28 20:24:00,81.7,58.3,29.75,WNW,285,0.0,0.0,45,0.00,,,0.00,VWS V14.01,2013-08-29 03:24:00,
2013-08-28 20:25:00,81.7,58.3,29.75,WNW,285,0.0,0.0,45,0.00,,,0.00,VWS V14.01,2013-08-29 03:25:00,
2013-08-28 20:26:00,85.1,61.4,29.73,WSW,243,1.0,2.0,45,0.00,,,0.00,VWS V15.00,2013-08-29 03:26:00,
2013-08-28 20:27:00,81.6,58.8,29.75,West,264,1.0,1.0,46,0.00,,,0.00,VWS V14.01,2013-08-29 03:27:00,
2013-08-28 20:28:00,85.0,61.3,29.73,WSW,250,2.0,2.0,45,0.00,,,0.00,VWS V15.00,2013-08-29 03:28:00,
2013-08-28 20:29:00,84.9,61.2,29.73,West,259,2.0,2.0,45,0.00,,,0.00,VWS V15.00,2013-08-29 03:29:00,
2013-08-28 20:30:00,84.8,61.1,29.73,WSW,255,1.0,2.0,45,0.00,,,0.00,VWS V15.00,2013-08-29 03:30:00,
2013-08-28 20:31:00,81.3,59.2,29.76,WNW,293,0.0,0.0,47,0.00,,,0.00,VWS V14.01,2013-08-29 03:31:00,
2013-08-28 20:32:00,84.7,61.0,29.73,NW,319,2.0,3.0,45,0.00,,,0.00,VWS V15.00,2013-08-29 03:32:00,
2013-08-28 20:33:00,81.2,59.1,29.76,WNW,293,0.0,0.0,47,0.00,,,0.00,VWS V14.01,2013-08-29 03:33:00,
2013-08-28 20:34:00,81.2,59.1,29.76,West,269,2.0,2.0,47,0.00,,,0.00,VWS V14.01,2013-08-29 03:34:00,
2013-08-28 20:35:00,81.1,59.0,29.76,West,269,0.0,2.0,47,0.00,,,0.00,VWS V14.01,2013-08-29 03:35:00,
2013-08-28 20:36:00,84.5,60.8,29.73,NW,323,0.0,3.0,45,0.00,,,0.00,VWS V15.00,2013-08-29 03:36:00,
2013-08-28 20:37:00,84.4,60.8,29.73,West,263,1.0,2.0,45,0.00,,,0.00,VWS V15.00,2013-08-29 03:37:00,
2013-08-28 20:38:00,81.0,59.5,29.76,West,269,0.0,0.0,48,0.00,,,0.00,VWS V14.01,2013-08-29 03:38:00,
2013-08-28 20:40:00,80.8,59.3,29.76,West,269,0.0,0.0,48,0.00,,,0.00,VWS V14.01,2013-08-29 03:40:00,
2013-08-28 20:41:00,80.8,59.3,29.76,West,269,0.0,0.0,48,0.00,,,0.00,VWS V14.01,2013-08-29 03:41:00,
2013-08-28 20:44:00,80.6,59.1,29.76,West,269,0.0,0.0,48,0.00,,,0.00,VWS V14.01,2013-08-29 03:44:00,
2013-08-28 20:46:00,80.4,58.9,29.76,West,269,0.0,1.0,48,0.00,,,0.00,VWS V14.01,2013-08-29 03:46:00,
2013-08-28 20:47:00,80.4,58.9,29.76,West,269,0.0,0.0,48,0.00,,,0.00,VWS V14.01,2013-08-29 03:47:00,
2013-08-28 20:48:00,80.3,58.8,29.76,West,269,1.0,1.0,48,0.00,,,0.00,VWS V14.01,2013-08-29 03:48:00,
2013-08-28 20:49:00,80.3,58.8,29.76,West,269,0.0,1.0,48,0.00,,,0.00,VWS V14.01,2013-08-29 03:49:00,
2013-08-28 20:50:00,83.2,60.3,29.74,North,6,0.0,2.0,46,0.00,,,0.00,VWS V15.00,2013-08-29 03:50:00,
2013-08-28 20:52:00,80.2,58.8,29.77,West,273,0.0,0.0,48,0.00,,,0.00,VWS V14.01,2013-08-29 03:52:00,
2013-08-28 20:53:00,80.2,58.8,29.77,West,273,0.0,0.0,48,0.00,,,0.00,VWS V14.01,2013-08-29 03:53:00,
2013-08-28 20:54:00,80.2,58.8,29.77,West,273,0.0,0.0,48,0.00,,,0.00,VWS V14.01,2013-08-29 03:54:00,
2013-08-28 20:55:00,80.1,58.7,29.77,North,352,0.0,1.0,48,0.00,,,0.00,VWS V14.01,2013-08-29 03:55:00,
2013-08-28 20:56:00,82.7,59.8,29.74,WNW,285,0.0,0.0,46,0.00,,,0.00,VWS V15.00,2013-08-29 03:56:00,
2013-08-28 20:57:00,82.7,59.8,29.74,WNW,285,0.0,0.0,46,0.00,,,0.00,VWS V15.00,2013-08-29 03:57:00,
2013-08-28 20:58:00,82.6,59.7,29.74,NE,34,1.0,1.0,46,0.00,,,0.00,VWS V15.00,2013-08-29 03:58:00,
2013-08-28 20:59:00,80.0,58.6,29.77,North,353,0.0,0.0,48,0.00,,,0.00,VWS V14.01,2013-08-29 03:59:00,
2013-08-28 21:00:00,82.5,59.7,29.74,NNE,18,0.0,1.0,46,0.00,,,0.00,VWS V15.00,2013-08-29 04:00:00,
2013-08-28 21:01:00,79.9,57.9,29.77,WNW,286,0.0,1.0,47,0.00,,,0.00,VWS V14.01,2013-08-29 04:01:00,
2013-08-28 21:02:00,79.9,57.9,29.77,WNW,282,1.0,1.0,47,0.00,,,0.00,VWS V14.01,2013-08-29 04:02:00,
2013-08-28 21:03:00,79.8,57.8,29.77,WNW,283,0.0,0.0,47,0.00,,,0.00,VWS V14.01,2013-08-29 04:03:00,
2013-08-28 21:04:00,79.8,57.8,29.77,WNW,286,0.0,1.0,47,0.00,,,0.00,VWS V14.01,2013-08-29 04:04:00,
2013-08-28 21:05:00,79.8,57.8,29.77,WNW,286,0.0,1.0,47,0.00,,,0.00,VWS V14.01,2013-08-29 04:05:00,
2013-08-28 21:06:00,82.3,58.9,29.74,North,4,0.0,1.0,45,0.00,,,0.00,VWS V15.00,2013-08-29 04:06:00,
2013-08-28 21:08:00,79.6,57.6,29.77,North,6,0.0,0.0,47,0.00,,,0.00,VWS V14.01,2013-08-29 04:08:00,
2013-08-28 21:09:00,79.6,57.6,29.77,North,6,0.0,0.0,47,0.00,,,0.00,VWS V14.01,2013-08-29 04:09:00,
2013-08-28 21:10:00,79.6,57.6,29.77,North,6,0.0,0.0,47,0.00,,,0.00,VWS V14.01,2013-08-29 04:10:00,
2013-08-28 21:11:00,79.5,57.5,29.77,North,6,0.0,1.0,47,0.00,,,0.00,VWS V14.01,2013-08-29 04:11:00,
2013-08-28 21:12:00,82.1,58.0,29.75,West,274,1.0,1.0,44,0.00,,,0.00,VWS V15.00,2013-08-29 04:12:00,
2013-08-28 21:13:00,79.4,57.4,29.77,North,349,0.0,0.0,47,0.00,,,0.00,VWS V14.01,2013-08-29 04:13:00,
2013-08-28 21:14:00,79.4,57.4,29.77,NNW,348,0.0,0.0,47,0.00,,,0.00,VWS V14.01,2013-08-29 04:14:00,
2013-08-28 21:15:00,79.3,57.3,29.77,North,349,0.0,0.0,47,0.00,,,0.00,VWS V14.01,2013-08-29 04:15:00,
2013-08-28 21:17:00,81.9,57.9,29.75,WNW,296,0.0,0.0,44,0.00,,,0.00,VWS V15.00,2013-08-29 04:17:00,
2013-08-28 21:18:00,81.9,58.5,29.75,WNW,297,0.0,1.0,45,0.00,,,0.00,VWS V15.00,2013-08-29 04:18:00,
2013-08-28 21:19:00,81.9,58.5,29.75,WNW,297,0.0,0.0,45,0.00,,,0.00,VWS V15.00,2013-08-29 04:19:00,
2013-08-28 21:20:00,79.2,57.2,29.77,NNW,329,1.0,3.0,47,0.00,,,0.00,VWS V14.01,2013-08-29 04:20:00,
2013-08-28 21:21:00,81.8,58.4,29.75,WNW,285,0.0,1.0,45,0.00,,,0.00,VWS V15.00,2013-08-29 04:21:00,
2013-08-28 21:22:00,79.1,57.2,29.78,North,350,1.0,1.0,47,0.00,,,0.00,VWS V14.01,2013-08-29 04:22:00,
2013-08-28 21:23:00,81.7,58.3,29.75,WNW,285,0.0,0.0,45,0.00,,,0.00,VWS V15.00,2013-08-29 04:23:00,
2013-08-28 21:24:00,81.6,58.2,29.75,WNW,285,0.0,0.0,45,0.00,,,0.00,VWS V15.00,2013-08-29 04:24:00,
2013-08-28 21:25:00,79.0,57.1,29.78,NNW,337,1.0,1.0,47,0.00,,,0.00,VWS V14.01,2013-08-29 04:25:00,
2013-08-28 21:26:00,81.5,58.8,29.75,WNW,294,0.0,1.0,46,0.00,,,0.00,VWS V15.00,2013-08-29 04:26:00,
2013-08-28 21:27:00,79.0,57.1,29.78,NNW,338,1.0,1.0,47,0.00,,,0.00,VWS V14.01,2013-08-29 04:27:00,
2013-08-28 21:28:00,81.4,58.7,29.76,WNW,293,0.0,0.0,46,0.00,,,0.00,VWS V15.00,2013-08-29 04:28:00,
2013-08-28 21:29:00,81.3,59.2,29.76,WNW,293,0.0,0.0,47,0.00,,,0.00,VWS V15.00,2013-08-29 04:29:00,
2013-08-28 21:30:00,81.3,59.2,29.76,WNW,292,0.0,0.0,47,0.00,,,0.00,VWS V15.00,2013-08-29 04:30:00,
2013-08-28 21:31:00,81.2,59.1,29.76,WNW,293,0.0,0.0,47,0.00,,,0.00,VWS V15.00,2013-08-29 04:31:00,
2013-08-28 21:32:00,78.8,56.9,29.78,NNW,334,0.0,0.0,47,0.00,,,0.00,VWS V14.01,2013-08-29 04:32:00,
2013-08-28 21:33:00,78.8,56.9,29.78,NNW,335,0.0,0.0,47,0.00,,,0.00,VWS V14.01,2013-08-29 04:33:00,
2013-08-28 21:34:00,78.8,56.9,29.79,NNW,335,1.0,1.0,47,0.00,,,0.00,VWS V14.01,2013-08-29 04:34:00,
2013-08-28 21:35:00,81.0,58.9,29.76,West,269,0.0,1.0,47,0.00,,,0.00,VWS V15.00,2013-08-29 04:35:00,
2013-08-28 21:36:00,81.0,59.5,29.76,West,269,0.0,0.0,48,0.00,,,0.00,VWS V15.00,2013-08-29 04:36:00,
2013-08-28 21:37:00,80.9,59.4,29.76,West,269,0.0,0.0,48,0.00,,,0.00,VWS V15.00,2013-08-29 04:37:00,
2013-08-28 21:38:00,78.7,56.8,29.79,NNW,335,0.0,1.0,47,0.00,,,0.00,VWS V14.01,2013-08-29 04:38:00,
2013-08-28 21:39:00,80.8,59.3,29.76,West,269,0.0,0.0,48,0.00,,,0.00,VWS V15.00,2013-08-29 04:39:00,
2013-08-28 21:41:00,78.5,56.6,29.79,NNW,335,0.0,1.0,47,0.00,,,0.00,VWS V14.01,2013-08-29 04:41:00,
2013-08-28 21:42:00,80.6,59.1,29.76,West,269,0.0,0.0,48,0.00,,,0.00,VWS V15.00,2013-08-29 04:42:00,
2013-08-28 21:43:00,78.4,56.5,29.79,NNW,335,0.0,0.0,47,0.00,,,0.00,VWS V14.01,2013-08-29 04:43:00,
2013-08-28 21:44:00,78.4,56.5,29.79,NNW,335,0.0,0.0,47,0.00,,,0.00,VWS V14.01,2013-08-29 04:44:00,
2013-08-28 21:46:00,78.3,56.4,29.79,NNW,335,0.0,1.0,47,0.00,,,0.00,VWS V14.01,2013-08-29 04:46:00,
2013-08-28 21:47:00,80.3,58.8,29.76,West,269,0.0,1.0,48,0.00,,,0.00,VWS V15.00,2013-08-29 04:47:00,
2013-08-28 21:48:00,78.1,56.2,29.79,NNW,335,0.0,1.0,47,0.00,,,0.00,VWS V14.01,2013-08-29 04:48:00,
2013-08-28 21:49:00,78.1,56.2,29.79,NNW,335,0.0,1.0,47,0.00,,,0.00,VWS V14.01,2013-08-29 04:49:00,
2013-08-28 21:50:00,78.1,56.2,29.79,NNW,334,0.0,0.0,47,0.00,,,0.00,VWS V14.01,2013-08-29 04:50:00,
2013-08-28 21:51:00,78.0,56.2,29.79,NNW,334,0.0,0.0,47,0.00,,,0.00,VWS V14.01,2013-08-29 04:51:00,
2013-08-28 21:52:00,80.2,58.8,29.77,West,273,0.0,0.0,48,0.00,,,0.00,VWS V15.00,2013-08-29 04:52:00,
2013-08-28 21:53:00,77.9,56.1,29.79,NNW,335,0.0,1.0,47,0.00,,,0.00,VWS V14.01,2013-08-29 04:53:00,
2013-08-28 21:54:00,77.9,56.1,29.79,NNW,335,0.0,0.0,47,0.00,,,0.00,VWS V14.01,2013-08-29 04:54:00,
2013-08-28 21:55:00,80.1,58.7,29.77,North,353,0.0,1.0,48,0.00,,,0.00,VWS V15.00,2013-08-29 04:55:00,
2013-08-28 21:56:00,80.0,58.6,29.77,North,353,0.0,0.0,48,0.00,,,0.00,VWS V15.00,2013-08-29 04:56:00,
2013-08-28 21:57:00,77.7,56.5,29.79,NNW,335,0.0,1.0,48,0.00,,,0.00,VWS V14.01,2013-08-29 04:57:00,
2013-08-28 21:58:00,77.7,56.5,29.80,NNW,335,0.0,0.0,48,0.00,,,0.00,VWS V14.01,2013-08-29 04:58:00,
2013-08-28 21:59:00,79.9,57.9,29.77,WNW,286,0.0,1.0,47,0.00,,,0.00,VWS V15.00,2013-08-29 04:59:00,
2013-08-28 22:00:00,79.9,57.9,29.77,WNW,282,1.0,1.0,47,0.00,,,0.00,VWS V15.00,2013-08-29 05:00:00,
2013-08-28 22:01:00,79.8,57.8,29.77,WNW,282,0.0,1.0,47,0.00,,,0.00,VWS V15.00,2013-08-29 05:01:00,
2013-08-28 22:02:00,77.7,55.9,29.80,NNW,335,0.0,0.0,47,0.00,,,0.00,VWS V14.01,2013-08-29 05:02:00,
2013-08-28 22:03:00,77.6,55.8,29.80,NNW,335,0.0,0.0,47,0.00,,,0.00,VWS V14.01,2013-08-29 05:03:00,
2013-08-28 22:04:00,77.6,55.8,29.80,NNW,335,0.0,0.0,47,0.00,,,0.00,VWS V14.01,2013-08-29 05:04:00,
2013-08-28 22:05:00,79.7,57.7,29.77,North,6,0.0,1.0,47,0.00,,,0.00,VWS V15.00,2013-08-29 05:05:00,
2013-08-28 22:06:00,79.6,57.6,29.77,North,6,0.0,0.0,47,0.00,,,0.00,VWS V15.00,2013-08-29 05:06:00,
2013-08-28 22:07:00,79.6,57.6,29.77,North,6,0.0,0.0,47,0.00,,,0.00,VWS V15.00,2013-08-29 05:07:00,
2013-08-28 22:08:00,77.6,57.0,29.80,ESE,105,3.0,4.0,49,0.00,,,0.00,VWS V14.01,2013-08-29 05:08:00,
2013-08-28 22:09:00,79.5,57.5,29.77,North,6,0.0,1.0,47,0.00,,,0.00,VWS V15.00,2013-08-29 05:09:00,
2013-08-28 22:10:00,77.5,58.0,29.81,ESE,111,2.0,4.0,51,0.00,,,0.00,VWS V14.01,2013-08-29 05:10:00,
2013-08-28 22:11:00,79.4,57.4,29.77,NNW,348,0.0,2.0,47,0.00,,,0.00,VWS V15.00,2013-08-29 05:11:00,
2013-08-28 22:12:00,79.4,57.4,29.77,NNW,348,0.0,0.0,47,0.00,,,0.00,VWS V15.00,2013-08-29 05:12:00,
2013-08-28 22:13:00,79.3,57.3,29.77,North,349,0.0,0.0,47,0.00,,,0.00,VWS V15.00,2013-08-29 05:13:00,
2013-08-28 22:14:00,76.9,58.0,29.80,ESE,109,0.0,0.0,52,0.00,,,0.00,VWS V14.01,2013-08-29 05:14:00,
2013-08-28 22:15:00,76.8,57.9,29.80,ESE,109,0.0,0.0,52,0.00,,,0.00,VWS V14.01,2013-08-29 05:15:00,
2013-08-28 22:16:00,76.7,57.8,29.80,ESE,108,0.0,0.0,52,0.00,,,0.00,VWS V14.01,2013-08-29 05:16:00,
2013-08-28 22:17:00,79.2,57.8,29.77,North,8,2.0,2.0,48,0.00,,,0.00,VWS V15.00,2013-08-29 05:17:00,
2013-08-28 22:18:00,76.6,58.2,29.80,ESE,108,0.0,0.0,53,0.00,,,0.00,VWS V14.01,2013-08-29 05:18:00,
2013-08-28 22:19:00,76.5,58.1,29.80,ESE,108,0.0,0.0,53,0.00,,,0.00,VWS V14.01,2013-08-29 05:19:00,
2013-08-28 22:20:00,76.4,58.0,29.80,ESE,108,0.0,1.0,53,0.00,,,0.00,VWS V14.01,2013-08-29 05:20:00,
2013-08-28 22:21:00,79.1,57.2,29.78,NNW,338,1.0,1.0,47,0.00,,,0.00,VWS V15.00,2013-08-29 05:21:00,
2013-08-28 22:22:00,76.4,58.0,29.80,ESE,108,0.0,0.0,53,0.00,,,0.00,VWS V14.01,2013-08-29 05:22:00,
2013-08-28 22:23:00,79.0,57.1,29.78,NNW,337,1.0,1.0,47,0.00,,,0.00,VWS V15.00,2013-08-29 05:23:00,
2013-08-28 22:24:00,76.3,57.9,29.80,ESE,109,0.0,1.0,53,0.00,,,0.00,VWS V14.01,2013-08-29 05:24:00,
2013-08-28 22:25:00,79.0,57.1,29.78,NNW,338,1.0,1.0,47,0.00,,,0.00,VWS V15.00,2013-08-29 05:25:00,
2013-08-28 22:26:00,76.3,57.9,29.80,ESE,109,0.0,0.0,53,0.00,,,0.00,VWS V14.01,2013-08-29 05:26:00,
2013-08-28 22:27:00,76.3,57.9,29.80,ESE,108,0.0,0.0,53,0.00,,,0.00,VWS V14.01,2013-08-29 05:27:00,
2013-08-28 22:28:00,78.9,56.4,29.78,NNW,335,1.0,1.0,46,0.00,,,0.00,VWS V15.00,2013-08-29 05:28:00,
2013-08-28 22:29:00,76.2,57.8,29.80,ESE,109,0.0,0.0,53,0.00,,,0.00,VWS V14.01,2013-08-29 05:29:00,
2013-08-28 22:30:00,78.8,56.9,29.78,NNW,334,0.0,0.0,47,0.00,,,0.00,VWS V15.00,2013-08-29 05:30:00,
2013-08-28 22:31:00,76.1,57.8,29.80,ESE,108,0.0,0.0,53,0.00,,,0.00,VWS V14.01,2013-08-29 05:31:00,
2013-08-28 22:32:00,78.8,56.9,29.79,NNW,335,1.0,1.0,47,0.00,,,0.00,VWS V15.00,2013-08-29 05:32:00,
2013-08-28 22:33:00,78.8,56.3,29.78,NNW,335,1.0,1.0,46,0.00,,,0.00,VWS V15.00,2013-08-29 05:33:00,
2013-08-28 22:34:00,75.9,58.1,29.80,ESE,109,0.0,0.0,54,0.00,,,0.00,VWS V14.01,2013-08-29 05:34:00,
2013-08-28 22:35:00,75.9,58.1,29.80,ESE,108,0.0,0.0,54,0.00,,,0.00,VWS V14.01,2013-08-29 05:35:00,
2013-08-28 22:36:00,75.8,58.0,29.80,ESE,109,0.0,0.0,54,0.00,,,0.00,VWS V14.01,2013-08-29 05:36:00,
2013-08-28 22:37:00,78.6,56.7,29.79,NNW,335,0.0,0.0,47,0.00,,,0.00,VWS V15.00,2013-08-29 05:37:00,
2013-08-28 22:39:00,75.8,58.0,29.80,ESE,108,1.0,1.0,54,0.00,,,0.00,VWS V14.01,2013-08-29 05:39:00,
2013-08-28 22:40:00,75.7,57.9,29.80,ESE,109,0.0,1.0,54,0.00,,,0.00,VWS V14.01,2013-08-29 05:40:00,
2013-08-28 22:41:00,75.7,58.4,29.80,ESE,109,0.0,0.0,55,0.00,,,0.00,VWS V14.01,2013-08-29 05:41:00,
2013-08-28 22:42:00,78.4,56.5,29.79,NNW,335,0.0,0.0,47,0.00,,,0.00,VWS V15.00,2013-08-29 05:42:00,
2013-08-28 22:43:00,78.3,56.4,29.79,NNW,335,0.0,1.0,47,0.00,,,0.00,VWS V15.00,2013-08-29 05:43:00,
2013-08-28 22:44:00,75.7,58.4,29.80,ESE,108,0.0,0.0,55,0.00,,,0.00,VWS V14.01,2013-08-29 05:44:00,
2013-08-28 22:45:00,78.2,56.3,29.79,NNW,335,0.0,0.0,47,0.00,,,0.00,VWS V15.00,2013-08-29 05:45:00,
2013-08-28 22:46:00,75.7,58.4,29.80,ESE,108,1.0,1.0,55,0.00,,,0.00,VWS V14.01,2013-08-29 05:46:00,
2013-08-28 22:47:00,75.7,58.4,29.80,ESE,109,0.0,1.0,55,0.00,,,0.00,VWS V14.01,2013-08-29 05:47:00,
2013-08-28 22:48:00,75.7,58.4,29.80,ESE,108,0.0,0.0,55,0.00,,,0.00,VWS V14.01,2013-08-29 05:48:00,
2013-08-28 22:49:00,75.7,58.9,29.80,ESE,109,0.0,1.0,56,0.00,,,0.00,VWS V14.01,2013-08-29 05:49:00,
2013-08-28 22:50:00,77.9,56.1,29.79,NNW,335,0.0,0.0,47,0.00,,,0.00,VWS V15.00,2013-08-29 05:50:00,
2013-08-28 22:51:00,77.9,56.1,29.79,NNW,335,0.0,1.0,47,0.00,,,0.00,VWS V15.00,2013-08-29 05:51:00,
2013-08-28 22:52:00,77.9,56.1,29.79,NNW,335,0.0,0.0,47,0.00,,,0.00,VWS V15.00,2013-08-29 05:52:00,
2013-08-28 22:53:00,77.8,56.0,29.79,NNW,334,0.0,1.0,47,0.00,,,0.00,VWS V15.00,2013-08-29 05:53:00,
2013-08-28 22:54:00,75.4,58.6,29.80,ESE,117,1.0,1.0,56,0.00,,,0.00,VWS V14.01,2013-08-29 05:54:00,
2013-08-28 22:55:00,75.3,58.5,29.80,ESE,117,1.0,1.0,56,0.00,,,0.00,VWS V14.01,2013-08-29 05:55:00,
2013-08-28 22:56:00,75.2,58.9,29.80,ESE,113,1.0,1.0,57,0.00,,,0.00,VWS V14.01,2013-08-29 05:56:00,
2013-08-28 22:57:00,77.7,56.5,29.80,NNW,334,0.0,1.0,48,0.00,,,0.00,VWS V15.00,2013-08-29 05:57:00,
2013-08-28 22:59:00,75.0,58.8,29.80,ESE,113,0.0,0.0,57,0.00,,,0.00,VWS V14.01,2013-08-29 05:59:00,
2013-08-28 23:00:00,77.7,55.9,29.80,NNW,335,0.0,0.0,47,0.00,,,0.00,VWS V15.00,2013-08-29 06:00:00,
2013-08-28 23:01:00,75.0,58.8,29.80,East,87,1.0,1.0,57,0.00,,,0.00,VWS V14.01,2013-08-29 06:01:00,
2013-08-28 23:02:00,74.9,58.7,29.80,ESE,110,2.0,2.0,57,0.00,,,0.00,VWS V14.01,2013-08-29 06:02:00,
2013-08-28 23:03:00,77.6,56.4,29.80,NNW,334,0.0,1.0,48,0.00,,,0.00,VWS V15.00,2013-08-29 06:03:00,
2013-08-28 23:04:00,77.6,56.4,29.80,NNW,345,1.0,1.0,48,0.00,,,0.00,VWS V15.00,2013-08-29 06:04:00,
2013-08-28 23:05:00,74.8,59.0,29.80,ESE,103,1.0,2.0,58,0.00,,,0.00,VWS V14.01,2013-08-29 06:05:00,
2013-08-28 23:06:00,74.8,59.0,29.80,ESE,103,0.0,1.0,58,0.00,,,0.00,VWS V14.01,2013-08-29 06:06:00,
2013-08-28 23:07:00,77.6,57.5,29.81,SE,124,3.0,4.0,50,0.00,,,0.00,VWS V15.00,2013-08-29 06:07:00,
2013-08-28 23:08:00,74.7,59.0,29.80,ESE,103,0.0,1.0,58,0.00,,,0.00,VWS V14.01,2013-08-29 06:08:00,
2013-08-28 23:09:00,77.3,57.8,29.81,SE,127,1.0,4.0,51,0.00,,,0.00,VWS V15.00,2013-08-29 06:09:00,
2013-08-28 23:10:00,77.2,58.2,29.81,ESE,109,1.0,2.0,52,0.00,,,0.00,VWS V15.00,2013-08-29 06:10:00,
2013-08-28 23:11:00,74.7,59.0,29.80,ESE,103,1.0,1.0,58,0.00,,,0.00,VWS V14.01,2013-08-29 06:11:00,
2013-08-28 23:12:00,76.9,58.0,29.80,ESE,109,0.0,0.0,52,0.00,,,0.00,VWS V15.00,2013-08-29 06:12:00,
2013-08-28 23:13:00,74.6,58.9,29.80,ESE,103,0.0,1.0,58,0.00,,,0.00,VWS V14.01,2013-08-29 06:13:00,
2013-08-28 23:14:00,74.5,58.8,29.80,ESE,103,0.0,1.0,58,0.00,,,0.00,VWS V14.01,2013-08-29 06:14:00,
2013-08-28 23:15:00,76.6,57.7,29.80,ESE,109,0.0,1.0,52,0.00,,,0.00,VWS V15.00,2013-08-29 06:15:00,
2013-08-28 23:16:00,74.5,58.8,29.79,ESE,103,0.0,0.0,58,0.00,,,0.00,VWS V14.01,2013-08-29 06:16:00,
2013-08-28 23:17:00,76.5,58.1,29.80,ESE,109,0.0,0.0,53,0.00,,,0.00,VWS V15.00,2013-08-29 06:17:00,
2013-08-28 23:18:00,74.4,58.7,29.79,ESE,103,0.0,1.0,58,0.00,,,0.00,VWS V14.01,2013-08-29 06:18:00,
2013-08-28 23:19:00,74.4,59.2,29.79,ESE,103,0.0,0.0,59,0.00,,,0.00,VWS V14.01,2013-08-29 06:19:00,
2013-08-28 23:20:00,76.4,58.0,29.80,ESE,108,0.0,0.0,53,0.00,,,0.00,VWS V15.00,2013-08-29 06:20:00,
2013-08-28 23:21:00,74.3,59.1,29.79,East,101,2.0,2.0,59,0.00,,,0.00,VWS V14.01,2013-08-29 06:21:00,
2013-08-28 23:23:00,74.3,59.1,29.80,ENE,77,1.0,1.0,59,0.00,,,0.00,VWS V14.01,2013-08-29 06:23:00,
2013-08-28 23:24:00,74.2,59.0,29.80,East,94,2.0,2.0,59,0.00,,,0.00,VWS V14.01,2013-08-29 06:24:00,
2013-08-28 23:25:00,76.3,57.9,29.80,ESE,108,0.0,0.0,53,0.00,,,0.00,VWS V15.00,2013-08-29 06:25:00,
2013-08-28 23:26:00,76.2,57.8,29.80,ESE,108,0.0,0.0,53,0.00,,,0.00,VWS V15.00,2013-08-29 06:26:00,
2013-08-28 23:27:00,76.2,57.8,29.80,ESE,108,0.0,0.0,53,0.00,,,0.00,VWS V15.00,2013-08-29 06:27:00,
2013-08-28 23:28:00,74.0,59.2,29.80,SE,127,1.0,1.0,60,0.00,,,0.00,VWS V14.01,2013-08-29 06:28:00,
2013-08-28 23:29:00,74.0,59.2,29.80,SE,127,0.0,1.0,60,0.00,,,0.00,VWS V14.01,2013-08-29 06:29:00,
2013-08-28 23:30:00,76.1,58.3,29.80,ESE,109,0.0,0.0,54,0.00,,,0.00,VWS V15.00,2013-08-29 06:30:00,
2013-08-28 23:31:00,73.9,59.2,29.79,South,187,1.0,1.0,60,0.00,,,0.00,VWS V14.01,2013-08-29 06:31:00,
2013-08-28 23:32:00,73.9,59.2,29.79,South,187,1.0,1.0,60,0.00,,,0.00,VWS V14.01,2013-08-29 06:32:00,
2013-08-28 23:33:00,73.9,59.2,29.79,South,187,0.0,1.0,60,0.00,,,0.00,VWS V14.01,2013-08-29 06:33:00,
2013-08-28 23:34:00,73.9,59.2,29.79,South,187,0.0,0.0,60,0.00,,,0.00,VWS V14.01,2013-08-29 06:34:00,
2013-08-28 23:35:00,75.8,58.0,29.80,ESE,108,0.0,0.0,54,0.00,,,0.00,VWS V15.00,2013-08-29 06:35:00,
2013-08-28 23:36:00,73.8,59.1,29.79,South,187,0.0,0.0,60,0.00,,,0.00,VWS V14.01,2013-08-29 06:36:00,
2013-08-28 23:37:00,75.8,58.0,29.80,ESE,108,1.0,1.0,54,0.00,,,0.00,VWS V15.00,2013-08-29 06:37:00,
2013-08-28 23:38:00,73.8,59.1,29.79,South,187,0.0,1.0,60,0.00,,,0.00,VWS V14.01,2013-08-29 06:38:00,
2013-08-28 23:39:00,73.8,59.1,29.79,South,187,0.0,0.0,60,0.00,,,0.00,VWS V14.01,2013-08-29 06:39:00,
2013-08-28 23:40:00,75.7,58.4,29.80,ESE,108,0.0,0.0,55,0.00,,,0.00,VWS V15.00,2013-08-29 06:40:00,
2013-08-28 23:44:00,73.6,58.9,29.79,South,187,1.0,1.0,60,0.00,,,0.00,VWS V14.01,2013-08-29 06:44:00,
2013-08-28 23:45:00,73.6,58.9,29.79,SW,224,1.0,1.0,60,0.00,,,0.00,VWS V14.01,2013-08-29 06:45:00,
2013-08-28 23:46:00,73.6,59.3,29.79,WSW,241,1.0,1.0,61,0.00,,,0.00,VWS V14.01,2013-08-29 06:46:00,
2013-08-28 23:47:00,75.7,58.9,29.80,ESE,109,0.0,1.0,56,0.00,,,0.00,VWS V15.00,2013-08-29 06:47:00,
2013-08-28 23:48:00,73.6,58.9,29.79,WSW,241,0.0,1.0,60,0.00,,,0.00,VWS V14.01,2013-08-29 06:48:00,
2013-08-28 23:49:00,75.6,58.8,29.80,ESE,122,1.0,1.0,56,0.00,,,0.00,VWS V15.00,2013-08-29 06:49:00,
2013-08-28 23:50:00,75.6,58.8,29.80,ESE,121,1.0,1.0,56,0.00,,,0.00,VWS V15.00,2013-08-29 06:50:00,
2013-08-28 23:51:00,73.5,58.8,29.79,WSW,242,0.0,0.0,60,0.00,,,0.00,VWS V14.01,2013-08-29 06:51:00,
2013-08-28 23:52:00,75.4,58.6,29.80,ESE,117,1.0,1.0,56,0.00,,,0.00,VWS V15.00,2013-08-29 06:52:00,
2013-08-28 23:53:00,73.5,58.8,29.79,WSW,242,0.0,0.0,60,0.00,,,0.00,VWS V14.01,2013-08-29 06:53:00,
2013-08-28 23:54:00,75.2,58.9,29.80,ESE,113,1.0,1.0,57,0.00,,,0.00,VWS V15.00,2013-08-29 06:54:00,
2013-08-28 23:55:00,75.1,58.8,29.80,ESE,113,0.0,1.0,57,0.00,,,0.00,VWS V15.00,2013-08-29 06:55:00,
2013-08-28 23:56:00,73.5,58.8,29.79,WSW,242,0.0,1.0,60,0.00,,,0.00,VWS V14.01,2013-08-29 06:56:00,
2013-08-28 23:57:00,75.0,58.8,29.80,ESE,113,0.0,0.0,57,0.00,,,0.00,VWS V15.00,2013-08-29 06:57:00,
2013-08-28 23:58:00,73.5,58.8,29.79,WSW,242,0.0,0.0,60,0.00,,,0.00,VWS V14.01,2013-08-29 06:58:00,
2013-08-28 23:59:00,73.5,58.8,29.79,WSW,242,0.0,0.0,60,0.00,,,0.00,VWS V14.01,2013-08-29 06:59:00,